IT9IJI-13 Weather Reports


Display with metric or nautical units.
time (UTC)temp
F
wind
direction
speed
MPH
gust
MPH
rain 1hr
in
rain 24hr
in
rain mn
in
humidity
%
barometer
mb
20260902101404 89 298 6.0 15.0 0.00 0.00 0.00 59 1018.8
20260902101304 89 298 6.0 15.0 0.00 0.00 0.00 59 1018.9
20260902101204 89 297 5.0 15.0 0.00 0.00 0.00 59 1018.8
20260902101104 89 297 5.0 15.0 0.00 0.00 0.00 59 1018.7
20260902101004 89 298 5.0 15.0 0.00 0.00 0.00 59 1018.8
20260902100904 89 297 5.0 15.0 0.00 0.00 0.00 59 1018.9
20260902100804 89 298 4.0 11.0 0.00 0.00 0.00 59 1018.8
20260902100703 89 297 4.0 11.0 0.00 0.00 0.00 59 1018.8
20260902100603 89 297 4.0 11.0 0.00 0.00 0.00 59 1018.8
20260902100504 89 297 3.0 11.0 0.00 0.00 0.00 59 1018.9
20260902100403 89 297 3.0 11.0 0.00 0.00 0.00 59 1018.9
20260902100304 89 297 3.0 9.0 0.00 0.00 0.00 59 1018.9
20260902100204 89 299 3.0 9.0 0.00 0.00 0.00 60 1018.9
20260902100104 89 299 3.0 11.0 0.00 0.00 0.00 59 1018.9
20260902100006 89 300 3.0 11.0 0.00 0.00 0.00 60 1018.9
20260902095903 89 299 4.0 11.0 0.00 0.00 0.00 60 1018.9
20260902095804 89 298 4.0 11.0 0.00 0.00 0.00 60 1018.9
20260902095703 89 298 4.0 11.0 0.00 0.00 0.00 60 1018.9
20260902095603 89 297 4.0 11.0 0.00 0.00 0.00 60 1018.9
20260902095503 89 297 4.0 11.0 0.00 0.00 0.00 60 1018.9
20260902095403 89 296 4.0 11.0 0.00 0.00 0.00 60 1018.8
20260902095306 89 297 4.0 12.0 0.00 0.00 0.00 60 1018.9
20260902095203 89 297 5.0 12.0 0.00 0.00 0.00 60 1018.9
20260902095103 89 297 4.0 12.0 0.00 0.00 0.00 60 1018.9
20260902095003 89 296 4.0 12.0 0.00 0.00 0.00 60 1018.9
20260902094903 89 297 4.0 12.0 0.00 0.00 0.00 60 1019.0
20260902094804 89 297 4.0 12.0 0.00 0.00 0.00 60 1018.9
20260902094703 89 297 4.0 12.0 0.00 0.00 0.00 60 1018.9
20260902094603 89 296 4.0 12.0 0.00 0.00 0.00 60 1018.9
20260902094503 89 296 4.0 12.0 0.00 0.00 0.00 60 1018.9
20260902094403 88 297 4.0 12.0 0.00 0.00 0.00 61 1018.9
20260902094303 88 297 4.0 9.0 0.00 0.00 0.00 61 1018.8
20260902094203 89 297 4.0 9.0 0.00 0.00 0.00 61 1018.9
20260902094103 88 297 3.0 9.0 0.00 0.00 0.00 61 1018.9
20260902094003 88 298 3.0 9.0 0.00 0.00 0.00 61 1018.9
20260902093903 88 298 3.0 9.0 0.00 0.00 0.00 61 1019.0
20260902093803 88 299 3.0 9.0 0.00 0.00 0.00 61 1018.8
20260902093703 88 298 4.0 11.0 0.00 0.00 0.00 61 1018.8
20260902093603 88 298 4.0 11.0 0.00 0.00 0.00 61 1018.8
20260902093503 88 301 4.0 12.0 0.00 0.00 0.00 61 1018.9
20260902093403 88 300 4.0 12.0 0.00 0.00 0.00 61 1018.8
20260902093303 88 299 4.0 12.0 0.00 0.00 0.00 61 1018.9
20260902093203 88 299 4.0 12.0 0.00 0.00 0.00 61 1018.8
20260902093103 88 298 4.0 12.0 0.00 0.00 0.00 60 1018.7
20260902093004 88 298 5.0 12.0 0.00 0.00 0.00 60 1018.7
20260902092903 88 298 5.0 12.0 0.00 0.00 0.00 61 1018.8
20260902092803 88 298 5.0 12.0 0.00 0.00 0.00 60 1018.9
20260902092703 88 299 4.0 12.0 0.00 0.00 0.00 61 1018.9
20260902092603 88 298 4.0 12.0 0.00 0.00 0.00 61 1018.9
20260902092503 88 297 4.0 10.0 0.00 0.00 0.00 61 1018.9
20260902092403 88 298 4.0 10.0 0.00 0.00 0.00 61 1018.9
20260902092305 88 297 4.0 10.0 0.00 0.00 0.00 61 1018.9
20260902092203 88 296 4.0 10.0 0.00 0.00 0.00 61 1018.9
20260902092103 88 297 5.0 12.0 0.00 0.00 0.00 61 1019.0
20260902092003 88 297 5.0 12.0 0.00 0.00 0.00 61 1019.0
20260902091903 88 296 5.0 12.0 0.00 0.00 0.00 61 1018.9
20260902091803 88 296 5.0 12.0 0.00 0.00 0.00 61 1018.8
20260902091703 88 297 5.0 12.0 0.00 0.00 0.00 61 1018.9
20260902091603 88 299 5.0 12.0 0.00 0.00 0.00 61 1018.9
20260902091503 88 299 5.0 13.0 0.00 0.00 0.00 61 1019.0
20260902091403 88 299 5.0 15.0 0.00 0.00 0.00 61 1019.0
20260902091303 88 300 5.0 15.0 0.00 0.00 0.00 61 1019.0
20260902091203 88 301 5.0 15.0 0.00 0.00 0.00 61 1019.0
20260902091103 88 302 5.0 15.0 0.00 0.00 0.00 62 1019.0
20260902091003 88 304 5.0 15.0 0.00 0.00 0.00 62 1018.9
20260902090903 88 302 6.0 15.0 0.00 0.00 0.00 62 1018.9
20260902090803 88 303 6.0 15.0 0.00 0.00 0.00 62 1018.9
20260902090703 88 303 6.0 15.0 0.00 0.00 0.00 62 1019.0
20260902090603 88 303 5.0 15.0 0.00 0.00 0.00 62 1019.0
20260902090503 88 303 5.0 15.0 0.00 0.00 0.00 61 1018.9
20260902090403 88 302 5.0 12.0 0.00 0.00 0.00 62 1018.9
20260902090303 88 302 5.0 12.0 0.00 0.00 0.00 62 1018.9
20260902090203 88 302 6.0 12.0 0.00 0.00 0.00 61 1019.0
20260902090004 88 301 6.0 12.0 0.00 0.00 0.00 61 1018.9
20260902085903 88 302 6.0 11.0 0.00 0.00 0.00 62 1018.9
20260902085803 88 301 6.0 11.0 0.00 0.00 0.00 62 1018.8
20260902085703 88 301 6.0 11.0 0.00 0.00 0.00 62 1018.8
20260902085603 87 301 6.0 11.0 0.00 0.00 0.00 62 1018.9
20260902085503 87 302 6.0 11.0 0.00 0.00 0.00 61 1018.9
20260902085403 87 302 6.0 11.0 0.00 0.00 0.00 61 1018.9
20260902085306 87 302 6.0 11.0 0.00 0.00 0.00 61 1018.9
20260902085203 87 301 6.0 13.0 0.00 0.00 0.00 61 1018.9
20260902085103 87 301 6.0 13.0 0.00 0.00 0.00 62 1018.8
20260902085003 87 301 5.0 13.0 0.00 0.00 0.00 62 1018.8
20260902084903 87 301 5.0 13.0 0.00 0.00 0.00 62 1018.7
20260902084803 87 301 5.0 13.0 0.00 0.00 0.00 62 1018.7
20260902084703 87 300 5.0 13.0 0.00 0.00 0.00 62 1018.6
20260902084603 87 299 6.0 13.0 0.00 0.00 0.00 62 1018.6
20260902084503 87 298 5.0 13.0 0.00 0.00 0.00 62 1018.7
20260902084403 87 297 5.0 13.0 0.00 0.00 0.00 62 1018.6
20260902084303 87 296 5.0 13.0 0.00 0.00 0.00 61 1018.6
20260902084203 87 297 5.0 11.0 0.00 0.00 0.00 62 1018.7
20260902084103 87 294 4.0 9.0 0.00 0.00 0.00 61 1018.6
20260902084003 87 293 4.0 9.0 0.00 0.00 0.00 61 1018.6
20260902083903 87 294 4.0 9.0 0.00 0.00 0.00 61 1018.6
20260902083803 88 295 3.0 8.0 0.00 0.00 0.00 61 1018.7
20260902083703 88 294 4.0 9.0 0.00 0.00 0.00 61 1018.7
20260902083603 88 296 3.0 9.0 0.00 0.00 0.00 61 1018.7
20260902083503 88 297 4.0 9.0 0.00 0.00 0.00 61 1018.6
20260902083403 88 298 4.0 9.0 0.00 0.00 0.00 61 1018.7
20260902083303 88 299 3.0 9.0 0.00 0.00 0.00 62 1018.7
20260902083203 88 299 3.0 9.0 0.00 0.00 0.00 62 1018.6
20260902083103 88 300 3.0 9.0 0.00 0.00 0.00 62 1018.6
20260902083003 88 300 3.0 9.0 0.00 0.00 0.00 62 1018.6
20260902082903 88 300 3.0 9.0 0.00 0.00 0.00 62 1018.6
20260902082803 87 299 3.0 9.0 0.00 0.00 0.00 62 1018.6
20260902082703 87 300 3.0 7.0 0.00 0.00 0.00 62 1018.7
20260902082603 87 300 3.0 7.0 0.00 0.00 0.00 62 1018.6
20260902082503 87 298 3.0 7.0 0.00 0.00 0.00 62 1018.6
20260902082403 88 299 3.0 8.0 0.00 0.00 0.00 62 1018.7
20260902082308 87 298 3.0 8.0 0.00 0.00 0.00 62 1018.7
20260902082203 87 299 3.0 8.0 0.00 0.00 0.00 62 1018.7
20260902082103 87 298 3.0 8.0 0.00 0.00 0.00 62 1018.6
20260902082003 87 300 3.0 8.0 0.00 0.00 0.00 62 1018.7
20260902081903 87 299 3.0 8.0 0.00 0.00 0.00 62 1018.6
20260902081803 87 301 3.0 8.0 0.00 0.00 0.00 62 1018.6
20260902081703 87 301 3.0 8.0 0.00 0.00 0.00 62 1018.6
20260902081604 87 299 3.0 8.0 0.00 0.00 0.00 62 1018.6
20260902081504 87 303 3.0 8.0 0.00 0.00 0.00 62 1018.6
20260902081404 87 301 3.0 11.0 0.00 0.00 0.00 62 1018.5
20260902081304 87 300 4.0 11.0 0.00 0.00 0.00 62 1018.6
20260902081204 87 300 4.0 11.0 0.00 0.00 0.00 62 1018.6
20260902081104 87 300 4.0 11.0 0.00 0.00 0.00 62 1018.5
20260902081004 87 297 5.0 11.0 0.00 0.00 0.00 62 1018.5
20260902080904 87 297 5.0 14.0 0.00 0.00 0.00 62 1018.6
20260902080804 87 296 5.0 14.0 0.00 0.00 0.00 62 1018.5
20260902080704 87 296 6.0 14.0 0.00 0.00 0.00 62 1018.5
20260902080604 87 296 6.0 14.0 0.00 0.00 0.00 62 1018.5
20260902080504 87 295 5.0 14.0 0.00 0.00 0.00 62 1018.6
20260902080404 87 294 4.0 14.0 0.00 0.00 0.00 62 1018.4
20260902080304 87 294 4.0 14.0 0.00 0.00 0.00 62 1018.4
20260902080204 87 294 4.0 14.0 0.00 0.00 0.00 62 1018.5
20260902080104 87 295 4.0 14.0 0.00 0.00 0.00 62 1018.4
20260902080004 87 296 4.0 14.0 0.00 0.00 0.00 62 1018.4
20260902075904 87 297 4.0 10.0 0.00 0.00 0.00 62 1018.4
20260902075804 87 298 4.0 10.0 0.00 0.00 0.00 63 1018.4
20260902075704 87 296 4.0 10.0 0.00 0.00 0.00 63 1018.3
20260902075604 87 295 4.0 10.0 0.00 0.00 0.00 63 1018.3
20260902075504 87 295 4.0 10.0 0.00 0.00 0.00 62 1018.3
20260902075404 87 295 4.0 10.0 0.00 0.00 0.00 62 1018.3
20260902075306 87 296 5.0 10.0 0.00 0.00 0.00 62 1018.3
20260902075204 87 296 5.0 10.0 0.00 0.00 0.00 62 1018.3
20260902075104 87 295 5.0 10.0 0.00 0.00 0.00 62 1018.3
20260902075004 87 295 5.0 10.0 0.00 0.00 0.00 62 1018.3
20260902074904 87 294 4.0 9.0 0.00 0.00 0.00 62 1018.3
20260902074804 87 293 4.0 9.0 0.00 0.00 0.00 62 1018.3
20260902074704 87 295 4.0 9.0 0.00 0.00 0.00 62 1018.3
20260902074604 87 295 4.0 9.0 0.00 0.00 0.00 62 1018.3
20260902074504 87 296 4.0 9.0 0.00 0.00 0.00 62 1018.3
20260902074404 87 295 4.0 9.0 0.00 0.00 0.00 62 1018.4
20260902074304 87 294 3.0 9.0 0.00 0.00 0.00 62 1018.5
20260902074204 87 293 3.0 9.0 0.00 0.00 0.00 62 1018.3
20260902074104 87 293 3.0 11.0 0.00 0.00 0.00 62 1018.3
20260902074004 87 292 4.0 12.0 0.00 0.00 0.00 62 1018.2
20260902073904 87 293 4.0 12.0 0.00 0.00 0.00 63 1018.3
20260902073804 87 295 4.0 12.0 0.00 0.00 0.00 62 1018.2
20260902073704 87 295 4.0 12.0 0.00 0.00 0.00 62 1018.3
20260902073604 87 296 4.0 12.0 0.00 0.00 0.00 62 1018.2
20260902073504 87 294 5.0 12.0 0.00 0.00 0.00 62 1018.0
20260902073404 87 295 5.0 12.0 0.00 0.00 0.00 62 1018.0
20260902073304 88 296 5.0 12.0 0.00 0.00 0.00 62 1017.9
20260902073204 88 296 5.0 12.0 0.00 0.00 0.00 62 1018.0
20260902073104 88 295 5.0 12.0 0.00 0.00 0.00 62 1018.1
20260902073004 88 296 5.0 12.0 0.00 0.00 0.00 62 1018.0
20260902072904 88 296 5.0 12.0 0.00 0.00 0.00 62 1018.1
20260902072803 88 295 5.0 12.0 0.00 0.00 0.00 62 1018.0
20260902072704 88 294 4.0 12.0 0.00 0.00 0.00 62 1018.0
20260902072604 88 295 5.0 12.0 0.00 0.00 0.00 62 1018.1
20260902072504 88 295 4.0 12.0 0.00 0.00 0.00 62 1018.0
20260902072403 88 295 4.0 12.0 0.00 0.00 0.00 62 1018.0
20260902072309 88 294 4.0 12.0 0.00 0.00 0.00 62 1018.0
20260902072203 88 295 3.0 10.0 0.00 0.00 0.00 62 1017.9
20260902072103 88 297 3.0 10.0 0.00 0.00 0.00 62 1018.0
20260902072003 88 298 3.0 10.0 0.00 0.00 0.00 62 1017.9
20260902071903 88 300 3.0 10.0 0.00 0.00 0.00 62 1017.9
20260902071803 88 300 3.0 10.0 0.00 0.00 0.00 62 1018.0
20260902071703 88 300 2.0 10.0 0.00 0.00 0.00 62 1018.0
20260902071603 88 299 2.0 8.0 0.00 0.00 0.00 63 1017.9
20260902071503 88 300 2.0 8.0 0.00 0.00 0.00 63 1017.9
20260902071403 88 298 3.0 11.0 0.00 0.00 0.00 63 1017.9
20260902071303 87 296 3.0 11.0 0.00 0.00 0.00 63 1017.9
20260902071203 87 295 4.0 11.0 0.00 0.00 0.00 63 1017.9
20260902071103 88 294 4.0 11.0 0.00 0.00 0.00 62 1018.0
20260902071003 88 295 4.0 11.0 0.00 0.00 0.00 62 1018.0
20260902070903 87 296 4.0 11.0 0.00 0.00 0.00 62 1017.9
20260902070803 88 295 4.0 11.0 0.00 0.00 0.00 62 1017.9
20260902070703 88 295 4.0 11.0 0.00 0.00 0.00 62 1017.9
20260902070603 88 296 4.0 11.0 0.00 0.00 0.00 62 1018.0
20260902070504 88 296 4.0 11.0 0.00 0.00 0.00 62 1018.0
20260902070403 88 296 4.0 13.0 0.00 0.00 0.00 62 1018.1
20260902070303 88 298 4.0 13.0 0.00 0.00 0.00 63 1018.0
20260902070203 88 301 4.0 13.0 0.00 0.00 0.00 63 1017.9
20260902070103 87 300 4.0 13.0 0.00 0.00 0.00 63 1017.8
20260902070005 87 300 4.0 13.0 0.00 0.00 0.00 63 1017.8
20260902065903 87 299 4.0 13.0 0.00 0.00 0.00 63 1017.8
20260902065803 87 298 4.0 13.0 0.00 0.00 0.00 63 1017.8
20260902065703 87 299 5.0 13.0 0.00 0.00 0.00 63 1017.8
20260902065603 87 298 5.0 13.0 0.00 0.00 0.00 63 1017.8
20260902065503 87 299 5.0 13.0 0.00 0.00 0.00 63 1017.9
20260902065403 87 301 4.0 11.0 0.00 0.00 0.00 63 1017.9
20260902065306 87 301 4.0 11.0 0.00 0.00 0.00 64 1017.9
20260902065203 87 299 5.0 11.0 0.00 0.00 0.00 64 1017.8
20260902065103 87 298 5.0 11.0 0.00 0.00 0.00 64 1017.9
20260902065003 87 298 5.0 11.0 0.00 0.00 0.00 64 1017.9
20260902064903 87 297 5.0 11.0 0.00 0.00 0.00 64 1017.9
20260902064803 87 299 5.0 11.0 0.00 0.00 0.00 64 1018.0
20260902064703 87 299 5.0 11.0 0.00 0.00 0.00 64 1017.9
20260902064603 87 298 5.0 11.0 0.00 0.00 0.00 64 1017.8
20260902064503 87 298 6.0 12.0 0.00 0.00 0.00 64 1017.9
20260902064403 87 297 6.0 12.0 0.00 0.00 0.00 64 1018.0
20260902064303 87 296 6.0 12.0 0.00 0.00 0.00 64 1017.8
20260902064203 87 298 5.0 12.0 0.00 0.00 0.00 64 1018.0
20260902064103 87 300 5.0 12.0 0.00 0.00 0.00 64 1018.0
20260902064003 87 302 5.0 12.0 0.00 0.00 0.00 64 1017.8
20260902063903 87 302 4.0 12.0 0.00 0.00 0.00 64 1017.9
20260902063803 87 300 4.0 12.0 0.00 0.00 0.00 64 1017.6
20260902063703 87 301 4.0 12.0 0.00 0.00 0.00 64 1017.7
20260902063603 87 300 4.0 12.0 0.00 0.00 0.00 64 1017.7
20260902063503 87 300 4.0 12.0 0.00 0.00 0.00 64 1017.6
20260902063403 87 300 4.0 12.0 0.00 0.00 0.00 64 1017.6
20260902063303 87 301 4.0 12.0 0.00 0.00 0.00 65 1017.6
20260902063203 87 298 4.0 12.0 0.00 0.00 0.00 65 1017.6
20260902063103 86 298 4.0 12.0 0.00 0.00 0.00 65 1017.6
20260902063003 86 297 4.0 12.0 0.00 0.00 0.00 65 1017.6
20260902062903 86 298 5.0 12.0 0.00 0.00 0.00 65 1017.6
20260902062803 86 299 5.0 12.0 0.00 0.00 0.00 65 1017.6
20260902062703 86 299 5.0 12.0 0.00 0.00 0.00 65 1017.6
20260902062603 86 300 5.0 12.0 0.00 0.00 0.00 65 1017.6
20260902062503 86 299 5.0 12.0 0.00 0.00 0.00 65 1017.6
20260902062403 86 299 4.0 12.0 0.00 0.00 0.00 65 1017.6
20260902062305 86 299 4.0 12.0 0.00 0.00 0.00 65 1017.7
20260902062203 86 299 5.0 12.0 0.00 0.00 0.00 65 1017.6
20260902062103 86 298 5.0 14.0 0.00 0.00 0.00 65 1017.7
20260902062003 86 298 4.0 14.0 0.00 0.00 0.00 65 1017.7
20260902061903 86 297 4.0 14.0 0.00 0.00 0.00 65 1017.7
20260902061803 86 297 4.0 14.0 0.00 0.00 0.00 65 1017.7
20260902061703 86 297 4.0 14.0 0.00 0.00 0.00 66 1017.7
20260902061603 86 297 4.0 14.0 0.00 0.00 0.00 66 1017.6
20260902061503 86 299 4.0 14.0 0.00 0.00 0.00 66 1017.6
20260902061403 86 299 4.0 14.0 0.00 0.00 0.00 66 1017.6
20260902061303 86 298 4.0 14.0 0.00 0.00 0.00 66 1017.7
20260902061203 86 300 4.0 14.0 0.00 0.00 0.00 67 1017.7
20260902061103 86 300 4.0 9.0 0.00 0.00 0.00 67 1017.6
20260902061003 86 301 4.0 9.0 0.00 0.00 0.00 67 1017.6
20260902060903 85 301 4.0 9.0 0.00 0.00 0.00 67 1017.6
20260902060803 85 299 4.0 9.0 0.00 0.00 0.00 67 1017.6
20260902060703 85 300 4.0 9.0 0.00 0.00 0.00 67 1017.7
20260902060603 85 298 3.0 9.0 0.00 0.00 0.00 67 1017.6
20260902060503 85 298 3.0 8.0 0.00 0.00 0.00 68 1017.7
20260902060403 85 298 3.0 8.0 0.00 0.00 0.00 68 1017.6
20260902060303 85 297 3.0 8.0 0.00 0.00 0.00 68 1017.6
20260902060203 85 296 4.0 8.0 0.00 0.00 0.00 68 1017.6
20260902060003 84 296 4.0 9.0 0.00 0.00 0.00 69 1017.7
20260902055903 84 296 4.0 9.0 0.00 0.00 0.00 69 1017.7
20260902055803 84 297 3.0 9.0 0.00 0.00 0.00 69 1017.7
20260902055703 84 297 3.0 9.0 0.00 0.00 0.00 69 1017.7
20260902055603 84 298 3.0 9.0 0.00 0.00 0.00 69 1017.6
20260902055503 84 297 3.0 9.0 0.00 0.00 0.00 70 1017.7
20260902055403 84 297 3.0 9.0 0.00 0.00 0.00 70 1017.7
20260902055306 83 298 3.0 9.0 0.00 0.00 0.00 70 1017.6
20260902055203 83 297 2.0 9.0 0.00 0.00 0.00 70 1017.6
20260902055103 83 297 3.0 9.0 0.00 0.00 0.00 70 1017.7
20260902055003 83 295 2.0 8.0 0.00 0.00 0.00 70 1017.7
20260902054903 83 294 3.0 8.0 0.00 0.00 0.00 70 1017.8
20260902054803 83 293 3.0 8.0 0.00 0.00 0.00 70 1017.7
20260902054703 83 292 3.0 8.0 0.00 0.00 0.00 71 1017.6
20260902054604 83 292 3.0 8.0 0.00 0.00 0.00 71 1017.7
20260902054504 83 292 3.0 8.0 0.00 0.00 0.00 71 1017.8
20260902054404 83 293 3.0 8.0 0.00 0.00 0.00 71 1017.6
20260902054304 83 292 3.0 8.0 0.00 0.00 0.00 71 1017.7
20260902054204 83 292 3.0 8.0 0.00 0.00 0.00 70 1017.6
20260902054104 83 291 3.0 8.0 0.00 0.00 0.00 71 1017.6
20260902054004 83 291 3.0 7.0 0.00 0.00 0.00 71 1017.7
20260902053904 83 292 3.0 7.0 0.00 0.00 0.00 71 1017.6
20260902053804 83 293 3.0 7.0 0.00 0.00 0.00 71 1017.6
20260902053704 83 293 3.0 7.0 0.00 0.00 0.00 71 1017.6
20260902053604 83 295 3.0 9.0 0.00 0.00 0.00 71 1017.6
20260902053504 83 295 3.0 9.0 0.00 0.00 0.00 71 1017.6
20260902053404 82 295 3.0 9.0 0.00 0.00 0.00 71 1017.6
20260902053304 82 296 3.0 9.0 0.00 0.00 0.00 71 1017.7
20260902053204 82 297 3.0 9.0 0.00 0.00 0.00 71 1017.6
20260902053104 82 298 3.0 9.0 0.00 0.00 0.00 71 1017.6
20260902053004 82 298 3.0 9.0 0.00 0.00 0.00 71 1017.7
20260902052904 82 298 3.0 9.0 0.00 0.00 0.00 72 1017.7
20260902052804 82 298 3.0 9.0 0.00 0.00 0.00 72 1017.6
20260902052704 82 298 4.0 9.0 0.00 0.00 0.00 72 1017.6
20260902052604 82 298 3.0 8.0 0.00 0.00 0.00 72 1017.7
20260902052504 82 298 3.0 8.0 0.00 0.00 0.00 72 1017.7
20260902052404 82 298 3.0 8.0 0.00 0.00 0.00 72 1017.7
20260902052306 82 298 3.0 8.0 0.00 0.00 0.00 72 1017.6
20260902052204 82 298 3.0 7.0 0.00 0.00 0.00 72 1017.6
20260902052104 82 298 3.0 8.0 0.00 0.00 0.00 72 1017.6
20260902052004 82 297 3.0 8.0 0.00 0.00 0.00 72 1017.6
20260902051904 82 298 3.0 8.0 0.00 0.00 0.00 72 1017.6
20260902051804 82 298 4.0 8.0 0.00 0.00 0.00 72 1017.6
20260902051704 82 298 3.0 8.0 0.00 0.00 0.00 72 1017.6
20260902051604 82 297 3.0 8.0 0.00 0.00 0.00 72 1017.6
20260902051504 82 298 3.0 8.0 0.00 0.00 0.00 72 1017.6
20260902051404 82 296 3.0 8.0 0.00 0.00 0.00 73 1017.6
20260902051304 82 296 3.0 8.0 0.00 0.00 0.00 73 1017.6
20260902051204 82 295 3.0 8.0 0.00 0.00 0.00 73 1017.6
20260902051104 82 296 3.0 7.0 0.00 0.00 0.00 73 1017.6
20260902051004 82 296 3.0 7.0 0.00 0.00 0.00 73 1017.6
20260902050904 81 295 3.0 7.0 0.00 0.00 0.00 73 1017.5
20260902050804 82 293 3.0 7.0 0.00 0.00 0.00 73 1017.6
20260902050704 81 293 3.0 7.0 0.00 0.00 0.00 73 1017.5
20260902050604 81 294 3.0 9.0 0.00 0.00 0.00 73 1017.4
20260902050504 81 293 3.0 9.0 0.00 0.00 0.00 73 1017.5
20260902050404 81 295 3.0 9.0 0.00 0.00 0.00 73 1017.5
20260902050304 81 294 3.0 9.0 0.00 0.00 0.00 73 1017.4
20260902050204 81 295 3.0 9.0 0.00 0.00 0.00 73 1017.5
20260902050104 81 295 3.0 9.0 0.00 0.00 0.00 73 1017.6
20260902050006 81 295 3.0 9.0 0.00 0.00 0.00 73 1017.5
20260902045903 81 294 3.0 9.0 0.00 0.00 0.00 73 1017.7
20260902045804 81 297 2.0 9.0 0.00 0.00 0.00 73 1017.8
20260902045703 81 297 2.0 9.0 0.00 0.00 0.00 73 1017.7
20260902045604 81 295 2.0 6.0 0.00 0.00 0.00 73 1017.7
20260902045503 81 295 2.0 6.0 0.00 0.00 0.00 73 1017.7
20260902045403 81 294 2.0 5.0 0.00 0.00 0.00 73 1017.7
20260902045306 81 295 2.0 5.0 0.00 0.00 0.00 73 1017.6
20260902045203 81 296 1.0 5.0 0.00 0.00 0.00 73 1017.7
20260902045103 81 295 2.0 8.0 0.00 0.00 0.00 73 1017.6
20260902045003 81 297 2.0 8.0 0.00 0.00 0.00 73 1017.8
20260902044903 81 295 2.0 8.0 0.00 0.00 0.00 73 1017.7
20260902044803 81 293 2.0 8.0 0.00 0.00 0.00 73 1017.8
20260902044703 81 295 2.0 8.0 0.00 0.00 0.00 73 1017.8
20260902044603 81 295 2.0 8.0 0.00 0.00 0.00 73 1017.6
20260902044503 81 294 3.0 8.0 0.00 0.00 0.00 73 1017.7
20260902044403 81 295 3.0 8.0 0.00 0.00 0.00 73 1017.7
20260902044303 81 295 3.0 8.0 0.00 0.00 0.00 73 1017.6
20260902044203 81 295 3.0 8.0 0.00 0.00 0.00 73 1017.7
20260902044103 81 296 2.0 8.0 0.00 0.00 0.00 73 1017.7
20260902044003 81 295 3.0 8.0 0.00 0.00 0.00 73 1017.7
20260902043903 81 295 2.0 6.0 0.00 0.00 0.00 73 1017.7
20260902043803 81 297 2.0 6.0 0.00 0.00 0.00 73 1017.6
20260902043703 81 296 2.0 6.0 0.00 0.00 0.00 73 1017.6
20260902043603 81 296 2.0 6.0 0.00 0.00 0.00 73 1017.6
20260902043503 81 296 2.0 6.0 0.00 0.00 0.00 73 1017.6
20260902043403 81 296 2.0 6.0 0.00 0.00 0.00 73 1017.6
20260902043303 81 297 2.0 6.0 0.00 0.00 0.00 73 1017.6
20260902043203 81 295 2.0 6.0 0.00 0.00 0.00 73 1017.6
20260902043103 81 296 2.0 6.0 0.00 0.00 0.00 73 1017.6
20260902043003 81 297 2.0 6.0 0.00 0.00 0.00 73 1017.6
20260902042903 81 297 2.0 6.0 0.00 0.00 0.00 73 1017.6
20260902042803 81 296 2.0 6.0 0.00 0.00 0.00 73 1017.6
20260902042703 81 296 2.0 6.0 0.00 0.00 0.00 73 1017.6
20260902042603 81 293 2.0 6.0 0.00 0.00 0.00 73 1017.5
20260902042503 81 294 2.0 6.0 0.00 0.00 0.00 73 1017.5
20260902042403 81 292 2.0 6.0 0.00 0.00 0.00 73 1017.5
20260902042308 81 291 2.0 6.0 0.00 0.00 0.00 73 1017.5
20260902042203 81 290 2.0 6.0 0.00 0.00 0.00 73 1017.5
20260902042103 81 288 2.0 6.0 0.00 0.00 0.00 73 1017.6
20260902042003 81 291 2.0 6.0 0.00 0.00 0.00 73 1017.6
20260902041903 81 292 2.0 7.0 0.00 0.00 0.00 73 1017.5
20260902041803 81 292 2.0 7.0 0.00 0.00 0.00 73 1017.6
20260902041703 81 292 2.0 7.0 0.00 0.00 0.00 73 1017.6
20260902041603 81 295 2.0 7.0 0.00 0.00 0.00 73 1017.5
20260902041503 81 295 2.0 7.0 0.00 0.00 0.00 73 1017.6
20260902041403 81 296 3.0 7.0 0.00 0.00 0.00 73 1017.5
20260902041303 81 296 3.0 7.0 0.00 0.00 0.00 73 1017.5
20260902041203 81 296 3.0 7.0 0.00 0.00 0.00 73 1017.5
20260902041103 81 296 3.0 7.0 0.00 0.00 0.00 73 1017.6
20260902041003 81 294 3.0 7.0 0.00 0.00 0.00 73 1017.5
20260902040903 81 295 2.0 7.0 0.00 0.00 0.00 73 1017.6
20260902040803 81 296 3.0 7.0 0.00 0.00 0.00 73 1017.5
20260902040703 81 298 3.0 7.0 0.00 0.00 0.00 73 1017.4
20260902040603 81 298 3.0 7.0 0.00 0.00 0.00 73 1017.5
20260902040503 81 298 3.0 8.0 0.00 0.00 0.00 73 1017.5
20260902040403 81 298 3.0 8.0 0.00 0.00 0.00 73 1017.5
20260902040303 81 297 3.0 8.0 0.00 0.00 0.00 73 1017.5
20260902040203 81 296 3.0 10.0 0.00 0.00 0.00 73 1017.5
20260902040103 81 295 3.0 10.0 0.00 0.00 0.00 73 1017.4
20260902040003 81 295 3.0 10.0 0.00 0.00 0.00 73 1017.4
20260902035903 81 293 3.0 10.0 0.00 0.00 0.00 73 1017.4
20260902035803 81 292 2.0 10.0 0.00 0.00 0.00 73 1017.5
20260902035703 81 289 2.0 10.0 0.00 0.00 0.00 73 1017.5
20260902035603 81 290 2.0 10.0 0.00 0.00 0.00 73 1017.4
20260902035503 81 290 2.0 10.0 0.00 0.00 0.00 73 1017.5
20260902035403 81 290 2.0 10.0 0.00 0.00 0.00 73 1017.4
20260902035305 81 290 2.0 10.0 0.00 0.00 0.00 73 1017.3
20260902035203 81 292 2.0 7.0 0.00 0.00 0.00 73 1017.4
20260902035103 81 292 2.0 6.0 0.00 0.00 0.00 73 1017.4
20260902035003 81 292 2.0 6.0 0.00 0.00 0.00 73 1017.4
20260902034903 81 294 2.0 6.0 0.00 0.00 0.00 73 1017.5
20260902034803 81 295 2.0 6.0 0.00 0.00 0.00 73 1017.5
20260902034703 81 296 2.0 6.0 0.00 0.00 0.00 73 1017.5
20260902034603 81 296 2.0 6.0 0.00 0.00 0.00 73 1017.4
20260902034503 81 295 2.0 6.0 0.00 0.00 0.00 73 1017.4
20260902034403 81 295 2.0 6.0 0.00 0.00 0.00 73 1017.4
20260902034303 81 295 2.0 6.0 0.00 0.00 0.00 73 1017.4
20260902034203 81 295 2.0 6.0 0.00 0.00 0.00 73 1017.5
20260902034103 81 294 2.0 6.0 0.00 0.00 0.00 73 1017.5
20260902034003 81 296 2.0 6.0 0.00 0.00 0.00 73 1017.4
20260902033903 81 293 2.0 10.0 0.00 0.00 0.00 73 1017.3
20260902033803 81 292 2.0 10.0 0.00 0.00 0.00 73 1017.4
20260902033703 81 292 2.0 10.0 0.00 0.00 0.00 73 1017.4
20260902033603 81 293 2.0 10.0 0.00 0.00 0.00 73 1017.4
20260902033503 81 293 2.0 10.0 0.00 0.00 0.00 73 1017.5
20260902033403 81 293 2.0 10.0 0.00 0.00 0.00 73 1017.4
20260902033303 81 294 2.0 10.0 0.00 0.00 0.00 74 1017.5
20260902033203 81 294 2.0 10.0 0.00 0.00 0.00 74 1017.5
20260902033103 81 294 2.0 10.0 0.00 0.00 0.00 74 1017.5
20260902033003 81 293 2.0 10.0 0.00 0.00 0.00 74 1017.5
20260902032904 81 294 2.0 6.0 0.00 0.00 0.00 74 1017.5
20260902032804 81 296 2.0 6.0 0.00 0.00 0.00 74 1017.5
20260902032704 81 296 2.0 6.0 0.00 0.00 0.00 74 1017.6
20260902032604 81 295 2.0 6.0 0.00 0.00 0.00 74 1017.5
20260902032504 81 295 2.0 6.0 0.00 0.00 0.00 74 1017.4
20260902032404 81 297 2.0 6.0 0.00 0.00 0.00 74 1017.5
20260902032306 81 296 2.0 6.0 0.00 0.00 0.00 74 1017.5
20260902032204 81 295 2.0 7.0 0.00 0.00 0.00 74 1017.5
20260902032104 81 295 2.0 7.0 0.00 0.00 0.00 74 1017.6
20260902032004 81 297 2.0 7.0 0.00 0.00 0.00 74 1017.6
20260902031904 81 298 2.0 7.0 0.00 0.00 0.00 74 1017.5
20260902031804 81 299 2.0 7.0 0.00 0.00 0.00 74 1017.5
20260902031704 81 300 2.0 7.0 0.00 0.00 0.00 74 1017.5
20260902031604 81 301 2.0 7.0 0.00 0.00 0.00 74 1017.5
20260902031504 81 300 2.0 8.0 0.00 0.00 0.00 74 1017.5
20260902031404 81 300 2.0 8.0 0.00 0.00 0.00 74 1017.5
20260902031304 81 302 2.0 8.0 0.00 0.00 0.00 74 1017.4
20260902031204 81 303 2.0 8.0 0.00 0.00 0.00 74 1017.5
20260902031104 81 303 2.0 8.0 0.00 0.00 0.00 74 1017.5
20260902031004 81 303 2.0 8.0 0.00 0.00 0.00 74 1017.4
20260902030904 81 302 2.0 8.0 0.00 0.00 0.00 74 1017.3
20260902030804 81 299 2.0 8.0 0.00 0.00 0.00 74 1017.4
20260902030704 81 299 2.0 8.0 0.00 0.00 0.00 74 1017.5
20260902030604 81 296 2.0 8.0 0.00 0.00 0.00 74 1017.4
20260902030504 81 295 1.0 6.0 0.00 0.00 0.00 74 1017.3
20260902030404 81 294 1.0 6.0 0.00 0.00 0.00 74 1017.3
20260902030304 81 293 1.0 6.0 0.00 0.00 0.00 74 1017.3
20260902030204 81 291 1.0 5.0 0.00 0.00 0.00 74 1017.4
20260902030104 81 291 1.0 6.0 0.00 0.00 0.00 74 1017.4
20260902030004 81 291 1.0 6.0 0.00 0.00 0.00 74 1017.4
20260902025904 81 291 1.0 6.0 0.00 0.00 0.00 74 1017.4
20260902025804 81 290 1.0 6.0 0.00 0.00 0.00 74 1017.5
20260902025704 81 291 2.0 6.0 0.00 0.00 0.00 74 1017.5
20260902025604 81 292 2.0 6.0 0.00 0.00 0.00 74 1017.5
20260902025504 81 292 2.0 6.0 0.00 0.00 0.00 74 1017.4
20260902025404 81 292 2.0 6.0 0.00 0.00 0.00 74 1017.4
20260902025306 81 292 2.0 6.0 0.00 0.00 0.00 74 1017.3
20260902025204 81 293 2.0 6.0 0.00 0.00 0.00 74 1017.4
20260902025104 81 292 2.0 6.0 0.00 0.00 0.00 74 1017.4
20260902025004 81 293 2.0 6.0 0.00 0.00 0.00 74 1017.4
20260902024904 81 293 1.0 6.0 0.00 0.00 0.00 74 1017.4
20260902024804 81 294 1.0 6.0 0.00 0.00 0.00 74 1017.5
20260902024703 81 293 1.0 6.0 0.00 0.00 0.00 74 1017.5
20260902024603 81 293 1.0 6.0 0.00 0.00 0.00 74 1017.4
20260902024504 81 294 1.0 5.0 0.00 0.00 0.00 74 1017.5
20260902024403 81 292 1.0 5.0 0.00 0.00 0.00 74 1017.4
20260902024303 81 294 1.0 6.0 0.00 0.00 0.00 74 1017.5
20260902024203 81 292 1.0 6.0 0.00 0.00 0.00 74 1017.5
20260902024103 81 293 1.0 6.0 0.00 0.00 0.00 74 1017.5
20260902024003 81 293 1.0 6.0 0.00 0.00 0.00 74 1017.6
20260902023903 81 295 1.0 6.0 0.00 0.00 0.00 74 1017.5
20260902023803 81 296 1.0 6.0 0.00 0.00 0.00 74 1017.5
20260902023703 81 298 1.0 6.0 0.00 0.00 0.00 74 1017.5
20260902023603 81 297 1.0 6.0 0.00 0.00 0.00 74 1017.5
20260902023503 81 296 1.0 6.0 0.00 0.00 0.00 74 1017.6
20260902023403 81 297 2.0 6.0 0.00 0.00 0.00 74 1017.4
20260902023303 81 296 2.0 7.0 0.00 0.00 0.00 74 1017.5
20260902023203 81 296 2.0 7.0 0.00 0.00 0.00 74 1017.5
20260902023103 81 296 2.0 7.0 0.00 0.00 0.00 74 1017.6
20260902023003 82 296 2.0 7.0 0.00 0.00 0.00 74 1017.5
20260902022903 81 295 2.0 7.0 0.00 0.00 0.00 74 1017.5
20260902022803 82 295 2.0 7.0 0.00 0.00 0.00 74 1017.5
20260902022703 82 294 2.0 7.0 0.00 0.00 0.00 74 1017.5
20260902022603 82 294 2.0 7.0 0.00 0.00 0.00 74 1017.5
20260902022503 82 294 2.0 7.0 0.00 0.00 0.00 74 1017.6
20260902022403 82 296 2.0 8.0 0.00 0.00 0.00 74 1017.5
20260902022306 82 297 2.0 8.0 0.00 0.00 0.00 74 1017.6
20260902022203 82 298 2.0 8.0 0.00 0.00 0.00 74 1017.7
20260902022103 82 299 2.0 8.0 0.00 0.00 0.00 74 1017.6
20260902022003 82 298 2.0 8.0 0.00 0.00 0.00 74 1017.6
20260902021903 82 298 2.0 8.0 0.00 0.00 0.00 74 1017.6
20260902021803 82 298 2.0 8.0 0.00 0.00 0.00 74 1017.6
20260902021703 81 298 2.0 8.0 0.00 0.00 0.00 74 1017.6
20260902021603 81 298 2.0 8.0 0.00 0.00 0.00 74 1017.6
20260902021503 82 298 2.0 8.0 0.00 0.00 0.00 74 1017.7
20260902021403 81 297 2.0 8.0 0.00 0.00 0.00 74 1017.6
20260902021303 81 296 2.0 8.0 0.00 0.00 0.00 74 1017.6
20260902021203 81 295 2.0 8.0 0.00 0.00 0.00 74 1017.6
20260902021103 81 295 2.0 8.0 0.00 0.00 0.00 74 1017.6
20260902021003 81 295 2.0 8.0 0.00 0.00 0.00 74 1017.6
20260902020903 81 295 2.0 8.0 0.00 0.00 0.00 74 1017.6
20260902020803 82 293 1.0 6.0 0.00 0.00 0.00 74 1017.6
20260902020703 81 291 1.0 6.0 0.00 0.00 0.00 74 1017.7
20260902020603 81 292 2.0 6.0 0.00 0.00 0.00 74 1017.6
20260902020503 81 293 2.0 6.0 0.00 0.00 0.00 74 1017.6
20260902020403 81 293 2.0 6.0 0.00 0.00 0.00 74 1017.7
20260902020303 82 295 2.0 6.0 0.00 0.00 0.00 74 1017.6
20260902020203 81 297 2.0 6.0 0.00 0.00 0.00 74 1017.6
20260902020103 81 294 2.0 8.0 0.00 0.00 0.00 74 1017.7
20260902020003 81 294 2.0 8.0 0.00 0.00 0.00 74 1017.7
20260902015903 81 294 3.0 8.0 0.00 0.00 0.00 74 1017.6
20260902015803 81 295 3.0 8.0 0.00 0.00 0.00 74 1017.6
20260902015703 81 296 3.0 9.0 0.00 0.00 0.00 74 1017.6
20260902015603 81 295 3.0 9.0 0.00 0.00 0.00 74 1017.6
20260902015503 81 294 3.0 9.0 0.00 0.00 0.00 74 1017.6
20260902015403 81 294 3.0 9.0 0.00 0.00 0.00 74 1017.6
20260902015305 81 293 2.0 9.0 0.00 0.00 0.00 74 1017.6
20260902015203 81 291 2.0 9.0 0.00 0.00 0.00 74 1017.6
20260902015103 81 292 2.0 9.0 0.00 0.00 0.00 74 1017.6
20260902015003 81 293 2.0 9.0 0.00 0.00 0.00 74 1017.5
20260902014903 81 293 2.0 9.0 0.00 0.00 0.00 74 1017.5
20260902014803 81 293 2.0 9.0 0.00 0.00 0.00 74 1017.5
20260902014703 81 292 2.0 7.0 0.00 0.00 0.00 74 1017.4
20260902014603 81 294 2.0 7.0 0.00 0.00 0.00 74 1017.4
20260902014503 81 294 2.0 9.0 0.00 0.00 0.00 74 1017.5
20260902014403 81 294 2.0 9.0 0.00 0.00 0.00 74 1017.4
20260902014303 81 295 2.0 9.0 0.00 0.00 0.00 74 1017.5
20260902014203 81 296 2.0 9.0 0.00 0.00 0.00 74 1017.4
20260902014103 81 295 2.0 9.0 0.00 0.00 0.00 74 1017.4
20260902014003 81 294 2.0 9.0 0.00 0.00 0.00 74 1017.4
20260902013903 81 293 2.0 9.0 0.00 0.00 0.00 74 1017.5
20260902013803 81 294 2.0 9.0 0.00 0.00 0.00 74 1017.5
20260902013703 81 294 2.0 9.0 0.00 0.00 0.00 74 1017.5
20260902013603 81 294 3.0 9.0 0.00 0.00 0.00 74 1017.5
20260902013503 81 294 3.0 7.0 0.00 0.00 0.00 74 1017.5
20260902013403 81 295 3.0 7.0 0.00 0.00 0.00 74 1017.5
20260902013303 82 294 2.0 7.0 0.00 0.00 0.00 74 1017.5
20260902013203 81 295 2.0 7.0 0.00 0.00 0.00 74 1017.5
20260902013103 81 295 3.0 7.0 0.00 0.00 0.00 74 1017.5
20260902013003 82 295 3.0 7.0 0.00 0.00 0.00 74 1017.6
20260902012903 82 296 3.0 7.0 0.00 0.00 0.00 74 1017.5
20260902012803 82 294 3.0 7.0 0.00 0.00 0.00 74 1017.5
20260902012703 82 294 3.0 7.0 0.00 0.00 0.00 74 1017.6
20260902012603 82 294 3.0 7.0 0.00 0.00 0.00 74 1017.6
20260902012503 82 294 3.0 7.0 0.00 0.00 0.00 74 1017.6
20260902012403 82 294 3.0 9.0 0.00 0.00 0.00 74 1017.6
20260902012308 82 293 3.0 9.0 0.00 0.00 0.00 74 1017.7
20260902012203 82 293 3.0 9.0 0.00 0.00 0.00 74 1017.7
20260902012103 82 293 3.0 9.0 0.00 0.00 0.00 74 1017.7
20260902012003 82 295 3.0 9.0 0.00 0.00 0.00 74 1017.7
20260902011903 82 296 3.0 9.0 0.00 0.00 0.00 74 1017.7
20260902011803 82 296 3.0 9.0 0.00 0.00 0.00 74 1017.7
20260902011703 82 296 3.0 9.0 0.00 0.00 0.00 74 1017.7
20260902011603 82 296 3.0 9.0 0.00 0.00 0.00 74 1017.9
20260902011504 82 296 3.0 9.0 0.00 0.00 0.00 74 1017.8
20260902011404 82 295 3.0 6.0 0.00 0.00 0.00 74 1017.7
20260902011304 82 296 2.0 6.0 0.00 0.00 0.00 74 1017.8
20260902011204 82 297 2.0 6.0 0.00 0.00 0.00 74 1017.6
20260902011104 82 297 3.0 6.0 0.00 0.00 0.00 74 1017.8
20260902011004 82 296 3.0 6.0 0.00 0.00 0.00 74 1017.8
20260902010904 82 294 3.0 6.0 0.00 0.00 0.00 74 1017.8
20260902010804 82 294 2.0 6.0 0.00 0.00 0.00 74 1017.8
20260902010704 82 295 3.0 7.0 0.00 0.00 0.00 74 1017.8
20260902010604 82 297 3.0 7.0 0.00 0.00 0.00 74 1017.7
20260902010504 82 296 3.0 7.0 0.00 0.00 0.00 74 1017.8
20260902010404 82 297 3.0 7.0 0.00 0.00 0.00 74 1017.8
20260902010304 82 297 3.0 7.0 0.00 0.00 0.00 74 1017.7
20260902010204 82 296 3.0 7.0 0.00 0.00 0.00 74 1017.6
20260902010104 82 297 3.0 7.0 0.00 0.00 0.00 74 1017.7
20260902010004 82 297 3.0 7.0 0.00 0.00 0.00 74 1017.7
20260902005904 82 299 3.0 7.0 0.00 0.00 0.00 74 1017.7
20260902005804 82 299 3.0 7.0 0.00 0.00 0.00 74 1017.8
20260902005704 82 297 3.0 7.0 0.00 0.00 0.00 74 1017.9
20260902005604 82 297 3.0 7.0 0.00 0.00 0.00 74 1017.8
20260902005504 82 297 3.0 7.0 0.00 0.00 0.00 74 1017.7
20260902005404 82 297 3.0 7.0 0.00 0.00 0.00 74 1017.6
20260902005306 82 299 3.0 6.0 0.00 0.00 0.00 74 1017.6
20260902005204 82 298 3.0 6.0 0.00 0.00 0.00 74 1017.8
20260902005104 82 298 3.0 6.0 0.00 0.00 0.00 74 1017.8
20260902005004 82 297 3.0 6.0 0.00 0.00 0.00 74 1017.9
20260902004904 82 295 3.0 6.0 0.00 0.00 0.00 74 1017.9
20260902004804 82 296 3.0 6.0 0.00 0.00 0.00 74 1017.9
20260902004704 82 298 2.0 6.0 0.00 0.00 0.00 74 1017.9
20260902004604 82 297 2.0 6.0 0.00 0.00 0.00 74 1017.9
20260902004504 82 297 2.0 6.0 0.00 0.00 0.00 74 1017.9
20260902004404 82 297 2.0 6.0 0.00 0.00 0.00 74 1017.9
20260902004304 82 296 2.0 6.0 0.00 0.00 0.00 74 1017.9
20260902004204 82 295 2.0 11.0 0.00 0.00 0.00 74 1018.0
20260902004104 82 296 2.0 11.0 0.00 0.00 0.00 74 1017.9
20260902004004 82 294 2.0 11.0 0.00 0.00 0.00 74 1017.9
20260902003904 82 294 2.0 11.0 0.00 0.00 0.00 74 1017.8
20260902003804 82 293 2.0 11.0 0.00 0.00 0.00 74 1017.7
20260902003704 82 293 2.0 11.0 0.00 0.00 0.00 74 1017.8
20260902003604 82 293 2.0 11.0 0.00 0.00 0.00 74 1017.8
20260902003503 82 293 2.0 11.0 0.00 0.00 0.00 74 1017.6
20260902003403 82 293 2.0 11.0 0.00 0.00 0.00 74 1017.7
20260902003303 82 293 2.0 11.0 0.00 0.00 0.00 74 1017.6
20260902003203 82 296 2.0 6.0 0.00 0.00 0.00 74 1017.7
20260902003104 82 295 2.0 7.0 0.00 0.00 0.00 74 1017.7
20260902003003 82 299 2.0 7.0 0.00 0.00 0.00 74 1017.6
20260902002904 82 299 2.0 7.0 0.00 0.00 0.00 74 1017.6
20260902002803 82 299 2.0 7.0 0.00 0.00 0.00 74 1017.6
20260902002703 82 301 2.0 7.0 0.00 0.00 0.00 74 1017.6
20260902002603 82 300 3.0 7.0 0.00 0.00 0.00 74 1017.6
20260902002503 82 300 3.0 7.0 0.00 0.00 0.00 74 1017.7
20260902002403 82 299 3.0 7.0 0.00 0.00 0.00 74 1017.7
20260902002306 82 299 3.0 7.0 0.00 0.00 0.00 74 1017.7
20260902002203 82 298 3.0 9.0 0.00 0.00 0.00 74 1017.7
20260902002103 82 298 2.0 9.0 0.00 0.00 0.00 74 1017.7
20260902002003 82 295 2.0 9.0 0.00 0.00 0.00 73 1017.6
20260902001903 82 296 2.0 9.0 0.00 0.00 0.00 73 1017.6
20260902001803 82 294 2.0 9.0 0.00 0.00 0.00 73 1017.7
20260902001703 82 293 2.0 9.0 0.00 0.00 0.00 73 1017.7
20260902001603 82 292 2.0 9.0 0.00 0.00 0.00 73 1017.6
20260902001503 82 293 2.0 9.0 0.00 0.00 0.00 73 1017.6
20260902001403 82 294 2.0 9.0 0.00 0.00 0.00 73 1017.7
20260902001303 82 293 2.0 9.0 0.00 0.00 0.00 74 1017.7
20260902001203 82 291 2.0 8.0 0.00 0.00 0.00 73 1017.6
20260902001103 82 291 3.0 8.0 0.00 0.00 0.00 73 1017.7
20260902001003 82 291 3.0 8.0 0.00 0.00 0.00 73 1017.8
20260902000903 82 290 3.0 8.0 0.00 0.00 0.00 73 1017.7
20260902000803 82 293 3.0 8.0 0.00 0.00 0.00 73 1017.7
20260902000703 82 293 3.0 8.0 0.00 0.00 0.00 73 1017.8
20260902000603 82 294 2.0 8.0 0.00 0.00 0.00 73 1017.7
20260902000503 82 294 2.0 8.0 0.00 0.00 0.00 73 1017.7
20260902000403 82 292 2.0 8.0 0.00 0.00 0.00 73 1017.7
20260902000304 82 293 2.0 8.0 0.00 0.00 0.00 73 1017.7
20260902000204 82 296 2.0 8.0 0.00 0.00 0.00 73 1017.9
20260902000103 82 298 2.0 8.0 0.00 0.00 0.00 73 1017.8
20260902000003 82 298 2.0 8.0 0.00 0.00 0.00 73 1017.8
20260901235903 82 297 2.0 8.0 0.00 0.00 0.00 73 1017.8
20260901235803 82 297 2.0 6.0 0.00 0.00 0.00 73 1017.9
20260901235703 82 298 2.0 6.0 0.00 0.00 0.00 73 1017.8
20260901235603 82 297 2.0 8.0 0.00 0.00 0.00 73 1017.8
20260901235503 82 298 3.0 8.0 0.00 0.00 0.00 73 1017.8
20260901235403 82 297 3.0 8.0 0.00 0.00 0.00 73 1017.8
20260901235307 82 296 3.0 8.0 0.00 0.00 0.00 73 1017.8
20260901235203 82 295 3.0 8.0 0.00 0.00 0.00 73 1017.8
20260901235103 82 293 3.0 8.0 0.00 0.00 0.00 73 1017.8
20260901235003 82 294 3.0 8.0 0.00 0.00 0.00 73 1017.8
20260901234903 82 294 3.0 8.0 0.00 0.00 0.00 73 1018.0
20260901234803 82 294 3.0 8.0 0.00 0.00 0.00 73 1018.0
20260901234703 82 294 3.0 8.0 0.00 0.00 0.00 73 1017.9
20260901234603 82 293 3.0 7.0 0.00 0.00 0.00 73 1018.0
20260901234503 82 293 3.0 7.0 0.00 0.00 0.00 73 1018.0
20260901234403 82 293 2.0 7.0 0.00 0.00 0.00 73 1018.0
20260901234303 82 295 2.0 7.0 0.00 0.00 0.00 73 1018.0
20260901234203 82 295 2.0 7.0 0.00 0.00 0.00 73 1018.0
20260901234103 82 296 2.0 7.0 0.00 0.00 0.00 73 1018.0
20260901234003 82 296 2.0 7.0 0.00 0.00 0.00 73 1018.0
20260901233903 82 298 2.0 7.0 0.00 0.00 0.00 73 1018.1
20260901233803 82 295 2.0 10.0 0.00 0.00 0.00 73 1018.1
20260901233703 82 299 3.0 10.0 0.00 0.00 0.00 73 1018.2
20260901233603 82 298 3.0 10.0 0.00 0.00 0.00 73 1018.1
20260901233503 82 297 3.0 10.0 0.00 0.00 0.00 73 1018.1
20260901233403 82 299 3.0 10.0 0.00 0.00 0.00 73 1018.1
20260901233303 82 298 2.0 10.0 0.00 0.00 0.00 73 1018.0
20260901233203 82 299 2.0 10.0 0.00 0.00 0.00 73 1018.0
20260901233103 82 298 2.0 10.0 0.00 0.00 0.00 73 1017.9
20260901233003 82 298 2.0 10.0 0.00 0.00 0.00 73 1017.9
20260901232903 82 297 2.0 10.0 0.00 0.00 0.00 73 1017.9
20260901232803 82 298 2.0 10.0 0.00 0.00 0.00 73 1017.9
20260901232703 82 295 2.0 7.0 0.00 0.00 0.00 73 1018.0
20260901232603 82 298 2.0 7.0 0.00 0.00 0.00 73 1017.9
20260901232503 82 298 2.0 7.0 0.00 0.00 0.00 73 1017.9
20260901232403 82 297 2.0 7.0 0.00 0.00 0.00 73 1017.9
20260901232306 82 296 3.0 7.0 0.00 0.00 0.00 73 1017.9
20260901232203 82 296 3.0 7.0 0.00 0.00 0.00 73 1017.9
20260901232103 82 297 3.0 7.0 0.00 0.00 0.00 73 1018.0
20260901232003 82 297 3.0 7.0 0.00 0.00 0.00 73 1018.0
20260901231903 82 298 3.0 7.0 0.00 0.00 0.00 73 1018.1
20260901231803 82 297 3.0 7.0 0.00 0.00 0.00 73 1018.1
20260901231703 82 297 3.0 7.0 0.00 0.00 0.00 73 1018.0
20260901231603 82 294 3.0 6.0 0.00 0.00 0.00 73 1018.0
20260901231503 82 295 3.0 6.0 0.00 0.00 0.00 73 1017.8
20260901231403 82 296 2.0 6.0 0.00 0.00 0.00 73 1017.8
20260901231303 82 298 2.0 6.0 0.00 0.00 0.00 73 1017.8
20260901231203 82 300 2.0 6.0 0.00 0.00 0.00 73 1017.8
20260901231004 82 297 2.0 6.0 0.00 0.00 0.00 73 1017.8
20260901230904 82 298 2.0 6.0 0.00 0.00 0.00 73 1017.8
20260901230804 82 297 2.0 7.0 0.00 0.00 0.00 73 1017.8
20260901230704 82 298 2.0 8.0 0.00 0.00 0.00 73 1017.8
20260901230604 83 300 2.0 8.0 0.00 0.00 0.00 73 1017.8
20260901230504 82 301 2.0 8.0 0.00 0.00 0.00 72 1017.8
20260901230404 83 302 2.0 8.0 0.00 0.00 0.00 72 1017.8
20260901230304 83 301 2.0 8.0 0.00 0.00 0.00 72 1017.8
20260901230204 83 302 2.0 8.0 0.00 0.00 0.00 73 1017.8
20260901230104 83 301 3.0 8.0 0.00 0.00 0.00 72 1017.8
20260901230004 83 301 3.0 11.0 0.00 0.00 0.00 73 1017.8
20260901225903 83 301 3.0 11.0 0.00 0.00 0.00 73 1017.8
20260901225803 83 302 3.0 11.0 0.00 0.00 0.00 73 1017.8
20260901225704 83 304 3.0 11.0 0.00 0.00 0.00 73 1017.8
20260901225604 83 304 3.0 11.0 0.00 0.00 0.00 73 1017.8
20260901225504 83 303 3.0 11.0 0.00 0.00 0.00 73 1017.7
20260901225404 83 303 4.0 11.0 0.00 0.00 0.00 73 1017.8
20260901225306 83 304 4.0 11.0 0.00 0.00 0.00 73 1017.7
20260901225204 83 304 4.0 11.0 0.00 0.00 0.00 73 1017.8
20260901225103 83 304 4.0 11.0 0.00 0.00 0.00 73 1017.7
20260901225004 83 306 3.0 11.0 0.00 0.00 0.00 72 1017.7
20260901224903 83 305 3.0 11.0 0.00 0.00 0.00 73 1017.7
20260901224803 83 304 3.0 11.0 0.00 0.00 0.00 73 1017.8
20260901224703 83 303 3.0 11.0 0.00 0.00 0.00 72 1017.9
20260901224603 83 302 3.0 11.0 0.00 0.00 0.00 72 1017.8
20260901224503 83 302 3.0 11.0 0.00 0.00 0.00 72 1017.9
20260901224403 83 303 3.0 11.0 0.00 0.00 0.00 72 1017.9
20260901224303 83 301 2.0 9.0 0.00 0.00 0.00 72 1017.8
20260901224203 83 300 2.0 9.0 0.00 0.00 0.00 72 1017.8
20260901224103 83 302 2.0 9.0 0.00 0.00 0.00 72 1017.7
20260901224003 83 303 2.0 9.0 0.00 0.00 0.00 72 1017.8
20260901223903 83 305 2.0 7.0 0.00 0.00 0.00 72 1017.7
20260901223803 83 303 2.0 7.0 0.00 0.00 0.00 72 1017.7
20260901223703 83 302 3.0 8.0 0.00 0.00 0.00 72 1017.6
20260901223603 83 302 3.0 8.0 0.00 0.00 0.00 72 1017.6
20260901223503 83 302 2.0 8.0 0.00 0.00 0.00 72 1017.8
20260901223403 83 301 2.0 8.0 0.00 0.00 0.00 72 1017.8
20260901223303 83 302 3.0 8.0 0.00 0.00 0.00 72 1017.8
20260901223203 83 302 3.0 8.0 0.00 0.00 0.00 72 1017.8
20260901223103 83 301 2.0 8.0 0.00 0.00 0.00 72 1017.7
20260901223004 83 300 2.0 8.0 0.00 0.00 0.00 72 1017.8
20260901222903 83 299 2.0 8.0 0.00 0.00 0.00 72 1017.9
20260901222803 83 300 2.0 8.0 0.00 0.00 0.00 72 1017.8
20260901222703 83 300 2.0 7.0 0.00 0.00 0.00 72 1017.7
20260901222603 83 301 2.0 7.0 0.00 0.00 0.00 72 1017.7
20260901222503 83 301 2.0 7.0 0.00 0.00 0.00 72 1017.8
20260901222403 83 301 2.0 7.0 0.00 0.00 0.00 72 1017.7
20260901222306 83 300 3.0 9.0 0.00 0.00 0.00 72 1017.7
20260901222203 83 300 3.0 9.0 0.00 0.00 0.00 72 1017.8
20260901222103 83 300 3.0 9.0 0.00 0.00 0.00 72 1017.8
20260901222003 83 299 3.0 9.0 0.00 0.00 0.00 72 1017.7
20260901221903 83 299 3.0 9.0 0.00 0.00 0.00 72 1017.7
20260901221803 83 299 3.0 9.0 0.00 0.00 0.00 72 1017.7
20260901221703 83 300 3.0 9.0 0.00 0.00 0.00 72 1017.6
20260901221603 83 300 3.0 9.0 0.00 0.00 0.00 72 1017.6
20260901221503 83 300 3.0 9.0 0.00 0.00 0.00 72 1017.7
20260901221403 83 299 3.0 9.0 0.00 0.00 0.00 72 1017.9
20260901221303 83 298 2.0 7.0 0.00 0.00 0.00 72 1017.9
20260901221203 83 297 2.0 7.0 0.00 0.00 0.00 72 1017.8
20260901221103 83 297 2.0 7.0 0.00 0.00 0.00 72 1017.8
20260901221003 83 299 2.0 7.0 0.00 0.00 0.00 72 1017.7
20260901220903 83 299 2.0 7.0 0.00 0.00 0.00 72 1017.9
20260901220803 83 298 2.0 7.0 0.00 0.00 0.00 72 1017.8
20260901220703 83 298 2.0 7.0 0.00 0.00 0.00 72 1017.8
20260901220603 83 297 3.0 7.0 0.00 0.00 0.00 72 1017.9
20260901220503 83 296 3.0 7.0 0.00 0.00 0.00 72 1017.9
20260901220403 83 296 3.0 7.0 0.00 0.00 0.00 72 1017.9
20260901220303 83 296 3.0 7.0 0.00 0.00 0.00 72 1017.8
20260901220203 83 296 3.0 7.0 0.00 0.00 0.00 72 1017.9
20260901220110 83 296 3.0 7.0 0.00 0.00 0.00 72 1017.9
20260901215903 83 295 3.0 7.0 0.00 0.00 0.00 72 1017.9
20260901215803 83 297 3.0 7.0 0.00 0.00 0.00 72 1017.9
20260901215703 83 297 2.0 7.0 0.00 0.00 0.00 72 1017.9
20260901215603 83 296 2.0 7.0 0.00 0.00 0.00 72 1017.7
20260901215503 83 298 2.0 7.0 0.00 0.00 0.00 71 1017.8
20260901215403 83 298 2.0 6.0 0.00 0.00 0.00 72 1017.7
20260901215306 83 296 2.0 6.0 0.00 0.00 0.00 71 1017.6
20260901215203 83 295 2.0 6.0 0.00 0.00 0.00 71 1017.7
20260901215103 83 295 2.0 6.0 0.00 0.00 0.00 71 1017.7
20260901215003 83 295 2.0 7.0 0.00 0.00 0.00 71 1017.6
20260901214903 83 296 2.0 7.0 0.00 0.00 0.00 71 1017.7
20260901214803 83 293 2.0 7.0 0.00 0.00 0.00 71 1017.6
20260901214703 83 293 2.0 7.0 0.00 0.00 0.00 71 1017.7
20260901214603 83 292 2.0 7.0 0.00 0.00 0.00 71 1017.7
20260901214503 83 291 2.0 7.0 0.00 0.00 0.00 71 1017.7
20260901214403 83 291 2.0 7.0 0.00 0.00 0.00 71 1017.7
20260901214303 83 292 2.0 7.0 0.00 0.00 0.00 71 1017.8
20260901214203 83 292 1.0 7.0 0.00 0.00 0.00 71 1017.8
20260901214103 83 293 1.0 7.0 0.00 0.00 0.00 71 1017.9
20260901214003 83 294 1.0 7.0 0.00 0.00 0.00 71 1017.8
20260901213903 83 296 1.0 7.0 0.00 0.00 0.00 71 1017.7
20260901213803 83 297 1.0 5.0 0.00 0.00 0.00 71 1017.7
20260901213703 83 298 1.0 5.0 0.00 0.00 0.00 71 1017.7
20260901213603 83 300 1.0 5.0 0.00 0.00 0.00 71 1017.8
20260901213503 83 300 1.0 5.0 0.00 0.00 0.00 71 1017.7
20260901213403 83 301 1.0 5.0 0.00 0.00 0.00 71 1017.7
20260901213303 83 302 1.0 5.0 0.00 0.00 0.00 71 1017.7
20260901213203 83 302 1.0 5.0 0.00 0.00 0.00 71 1017.7
20260901213103 83 301 1.0 5.0 0.00 0.00 0.00 71 1017.7
20260901213003 83 299 1.0 5.0 0.00 0.00 0.00 71 1017.8
20260901212903 83 297 1.0 5.0 0.00 0.00 0.00 71 1017.7
20260901212803 83 291 1.0 6.0 0.00 0.00 0.00 71 1017.8
20260901212703 83 294 1.0 6.0 0.00 0.00 0.00 71 1017.8
20260901212603 83 295 1.0 6.0 0.00 0.00 0.00 71 1017.8
20260901212503 83 295 1.0 7.0 0.00 0.00 0.00 71 1017.8
20260901212403 83 294 1.0 7.0 0.00 0.00 0.00 71 1017.8
20260901212306 83 294 2.0 7.0 0.00 0.00 0.00 71 1017.9
20260901212203 83 296 2.0 7.0 0.00 0.00 0.00 71 1017.8
20260901212103 83 295 2.0 7.0 0.00 0.00 0.00 71 1017.7
20260901212003 83 297 2.0 7.0 0.00 0.00 0.00 71 1017.7
20260901211903 83 296 2.0 7.0 0.00 0.00 0.00 71 1017.8
20260901211803 83 299 2.0 7.0 0.00 0.00 0.00 71 1017.7
20260901211703 83 298 2.0 7.0 0.00 0.00 0.00 71 1017.7
20260901211603 83 297 2.0 7.0 0.00 0.00 0.00 71 1017.8
20260901211503 83 299 2.0 6.0 0.00 0.00 0.00 71 1017.9
20260901211403 83 300 2.0 6.0 0.00 0.00 0.00 71 1017.9
20260901211303 83 301 2.0 6.0 0.00 0.00 0.00 71 1017.7
20260901211203 83 300 2.0 6.0 0.00 0.00 0.00 71 1017.7
20260901211103 83 300 2.0 6.0 0.00 0.00 0.00 71 1017.8
20260901211003 83 300 2.0 6.0 0.00 0.00 0.00 71 1017.8
20260901210903 83 301 2.0 6.0 0.00 0.00 0.00 71 1017.6
20260901210803 83 301 2.0 6.0 0.00 0.00 0.00 71 1017.7
20260901210704 83 301 2.0 6.0 0.00 0.00 0.00 71 1017.8
20260901210604 83 304 1.0 6.0 0.00 0.00 0.00 71 1017.8
20260901210504 83 303 1.0 6.0 0.00 0.00 0.00 71 1017.8
20260901210404 83 305 1.0 6.0 0.00 0.00 0.00 71 1017.7
20260901210304 83 304 1.0 6.0 0.00 0.00 0.00 71 1017.7
20260901210204 83 306 1.0 6.0 0.00 0.00 0.00 71 1017.6
20260901210104 83 308 1.0 6.0 0.00 0.00 0.00 71 1017.7
20260901210004 83 308 1.0 6.0 0.00 0.00 0.00 71 1017.6
20260901205904 83 307 1.0 6.0 0.00 0.00 0.00 71 1017.7
20260901205804 83 305 1.0 6.0 0.00 0.00 0.00 71 1017.7
20260901205704 83 305 1.0 6.0 0.00 0.00 0.00 71 1017.6
20260901205604 83 305 1.0 6.0 0.00 0.00 0.00 71 1017.6
20260901205504 83 305 1.0 6.0 0.00 0.00 0.00 71 1017.7
20260901205404 83 302 1.0 6.0 0.00 0.00 0.00 71 1017.6
20260901205306 83 299 2.0 6.0 0.00 0.00 0.00 71 1017.7
20260901205204 83 300 2.0 6.0 0.00 0.00 0.00 71 1017.7
20260901205104 83 298 2.0 6.0 0.00 0.00 0.00 71 1017.7
20260901205004 83 296 1.0 6.0 0.00 0.00 0.00 71 1017.8
20260901204904 83 295 1.0 6.0 0.00 0.00 0.00 71 1017.9
20260901204804 83 294 2.0 6.0 0.00 0.00 0.00 71 1017.8
20260901204704 83 294 1.0 6.0 0.00 0.00 0.00 71 1017.8
20260901204604 83 295 2.0 6.0 0.00 0.00 0.00 71 1017.8
20260901204504 83 294 2.0 6.0 0.00 0.00 0.00 71 1017.9
20260901204404 83 295 2.0 6.0 0.00 0.00 0.00 71 1017.8
20260901204304 83 297 2.0 6.0 0.00 0.00 0.00 71 1017.7
20260901204204 83 297 2.0 6.0 0.00 0.00 0.00 70 1017.7
20260901204104 83 296 2.0 6.0 0.00 0.00 0.00 71 1017.7
20260901204004 83 296 2.0 6.0 0.00 0.00 0.00 71 1017.8
20260901203904 83 296 2.0 6.0 0.00 0.00 0.00 71 1017.7
20260901203804 83 298 2.0 6.0 0.00 0.00 0.00 71 1017.7
20260901203704 83 297 2.0 6.0 0.00 0.00 0.00 70 1017.8
20260901203604 83 297 2.0 5.0 0.00 0.00 0.00 70 1017.8
20260901203504 83 298 1.0 5.0 0.00 0.00 0.00 70 1017.8
20260901203404 83 299 2.0 5.0 0.00 0.00 0.00 70 1017.7
20260901203304 83 297 2.0 5.0 0.00 0.00 0.00 70 1017.8
20260901203204 83 296 2.0 5.0 0.00 0.00 0.00 70 1017.8
20260901203104 83 297 2.0 5.0 0.00 0.00 0.00 70 1017.7
20260901203003 83 297 2.0 5.0 0.00 0.00 0.00 70 1017.9
20260901202904 83 297 2.0 5.0 0.00 0.00 0.00 70 1017.9
20260901202804 83 297 2.0 5.0 0.00 0.00 0.00 70 1017.7
20260901202704 83 299 2.0 5.0 0.00 0.00 0.00 70 1017.7
20260901202604 83 298 2.0 5.0 0.00 0.00 0.00 70 1017.7
20260901202503 83 298 2.0 6.0 0.00 0.00 0.00 70 1017.7
20260901202403 83 299 2.0 6.0 0.00 0.00 0.00 70 1017.8
20260901202306 83 299 2.0 6.0 0.00 0.00 0.00 70 1017.9
20260901202203 83 300 2.0 6.0 0.00 0.00 0.00 70 1017.8
20260901202103 83 299 2.0 6.0 0.00 0.00 0.00 70 1017.9
20260901202004 83 298 2.0 6.0 0.00 0.00 0.00 70 1017.7
20260901201903 83 298 2.0 6.0 0.00 0.00 0.00 70 1017.8
20260901201803 83 298 2.0 7.0 0.00 0.00 0.00 70 1018.0
20260901201703 83 297 3.0 7.0 0.00 0.00 0.00 70 1017.9
20260901201603 83 298 3.0 7.0 0.00 0.00 0.00 71 1018.0
20260901201503 83 297 3.0 7.0 0.00 0.00 0.00 70 1018.0
20260901201403 83 296 3.0 7.0 0.00 0.00 0.00 71 1018.0
20260901201303 83 296 3.0 7.0 0.00 0.00 0.00 71 1018.0
20260901201203 83 296 3.0 7.0 0.00 0.00 0.00 71 1017.9
20260901201103 83 295 3.0 7.0 0.00 0.00 0.00 71 1017.9
20260901201003 83 295 4.0 7.0 0.00 0.00 0.00 71 1018.0
20260901200903 83 295 4.0 7.0 0.00 0.00 0.00 71 1018.0
20260901200803 83 295 4.0 7.0 0.00 0.00 0.00 71 1018.0
20260901200703 83 295 4.0 7.0 0.00 0.00 0.00 71 1018.1
20260901200603 83 294 4.0 7.0 0.00 0.00 0.00 71 1018.0
20260901200503 83 295 3.0 7.0 0.00 0.00 0.00 71 1018.0
20260901200403 83 295 3.0 7.0 0.00 0.00 0.00 71 1018.0
20260901200303 83 295 3.0 7.0 0.00 0.00 0.00 71 1018.2
20260901200203 83 295 3.0 7.0 0.00 0.00 0.00 71 1018.0
20260901200103 83 297 3.0 7.0 0.00 0.00 0.00 71 1018.1
20260901200003 83 299 3.0 7.0 0.00 0.00 0.00 71 1018.0
20260901195903 83 298 3.0 8.0 0.00 0.00 0.00 71 1018.1
20260901195803 83 299 3.0 8.0 0.00 0.00 0.00 71 1018.0
20260901195703 83 301 3.0 8.0 0.00 0.00 0.00 71 1017.9
20260901195603 83 301 3.0 8.0 0.00 0.00 0.00 71 1018.0
20260901195503 83 302 4.0 8.0 0.00 0.00 0.00 71 1018.1
20260901195403 83 303 4.0 8.0 0.00 0.00 0.00 71 1018.1
20260901195306 83 304 4.0 8.0 0.00 0.00 0.00 71 1018.1
20260901195203 83 305 4.0 8.0 0.00 0.00 0.00 71 1018.1
20260901195103 83 303 4.0 8.0 0.00 0.00 0.00 71 1018.0
20260901195003 83 302 4.0 8.0 0.00 0.00 0.00 71 1018.2
20260901194903 83 302 4.0 8.0 0.00 0.00 0.00 71 1018.1
20260901194803 83 302 4.0 8.0 0.00 0.00 0.00 71 1018.1
20260901194703 83 301 4.0 8.0 0.00 0.00 0.00 71 1018.0
20260901194603 83 300 4.0 8.0 0.00 0.00 0.00 71 1017.9
20260901194503 83 300 4.0 7.0 0.00 0.00 0.00 71 1018.0
20260901194403 83 300 4.0 8.0 0.00 0.00 0.00 71 1018.1
20260901194303 83 298 4.0 8.0 0.00 0.00 0.00 71 1018.0
20260901194203 83 298 4.0 8.0 0.00 0.00 0.00 71 1018.1
20260901194103 83 299 4.0 8.0 0.00 0.00 0.00 71 1018.1
20260901194003 83 299 4.0 8.0 0.00 0.00 0.00 71 1018.2
20260901193903 83 299 4.0 8.0 0.00 0.00 0.00 71 1018.1
20260901193803 83 298 4.0 8.0 0.00 0.00 0.00 71 1018.0
20260901193703 83 299 4.0 8.0 0.00 0.00 0.00 71 1018.1
20260901193603 83 300 3.0 8.0 0.00 0.00 0.00 71 1018.2
20260901193503 83 300 3.0 8.0 0.00 0.00 0.00 71 1018.1
20260901193403 83 299 3.0 7.0 0.00 0.00 0.00 71 1018.0
20260901193303 83 300 3.0 7.0 0.00 0.00 0.00 71 1017.9
20260901193203 83 300 3.0 7.0 0.00 0.00 0.00 71 1018.1
20260901193103 83 299 3.0 10.0 0.00 0.00 0.00 71 1018.1
20260901193003 83 299 3.0 10.0 0.00 0.00 0.00 71 1018.1
20260901192903 83 300 3.0 10.0 0.00 0.00 0.00 71 1018.1
20260901192803 83 299 3.0 10.0 0.00 0.00 0.00 71 1018.0
20260901192703 83 299 4.0 10.0 0.00 0.00 0.00 71 1018.0
20260901192603 83 299 4.0 10.0 0.00 0.00 0.00 71 1018.0
20260901192503 83 299 4.0 10.0 0.00 0.00 0.00 71 1018.1
20260901192403 83 299 4.0 10.0 0.00 0.00 0.00 71 1018.0
20260901192306 83 300 4.0 10.0 0.00 0.00 0.00 71 1017.9
20260901192203 83 301 4.0 10.0 0.00 0.00 0.00 71 1018.0
20260901192103 83 301 3.0 8.0 0.00 0.00 0.00 71 1017.9
20260901192003 83 302 3.0 8.0 0.00 0.00 0.00 71 1017.9
20260901191903 83 301 4.0 8.0 0.00 0.00 0.00 71 1017.9
20260901191803 83 301 4.0 6.0 0.00 0.00 0.00 71 1017.9
20260901191703 83 301 4.0 7.0 0.00 0.00 0.00 70 1017.9
20260901191603 83 302 4.0 10.0 0.00 0.00 0.00 70 1017.9
20260901191503 83 302 5.0 10.0 0.00 0.00 0.00 71 1017.9
20260901191403 83 302 5.0 10.0 0.00 0.00 0.00 70 1017.9
20260901191303 83 301 5.0 10.0 0.00 0.00 0.00 71 1017.9
20260901191204 83 301 5.0 10.0 0.00 0.00 0.00 71 1017.9
20260901191103 83 300 5.0 10.0 0.00 0.00 0.00 71 1017.9
20260901191003 83 300 5.0 10.0 0.00 0.00 0.00 71 1018.0
20260901190903 83 300 5.0 10.0 0.00 0.00 0.00 71 1017.8
20260901190803 83 301 5.0 11.0 0.00 0.00 0.00 71 1017.9
20260901190703 83 301 5.0 11.0 0.00 0.00 0.00 70 1017.9
20260901190603 83 301 5.0 11.0 0.00 0.00 0.00 70 1017.8
20260901190503 83 301 4.0 11.0 0.00 0.00 0.00 70 1017.8
20260901190403 83 301 4.0 11.0 0.00 0.00 0.00 70 1017.8
20260901190303 83 302 4.0 11.0 0.00 0.00 0.00 70 1017.8
20260901190203 83 300 4.0 11.0 0.00 0.00 0.00 70 1017.7
20260901190003 83 301 4.0 11.0 0.00 0.00 0.00 70 1017.8
20260901185903 83 300 4.0 11.0 0.00 0.00 0.00 70 1017.8
20260901185803 83 299 4.0 9.0 0.00 0.00 0.00 70 1017.7
20260901185703 83 300 4.0 9.0 0.00 0.00 0.00 70 1017.8
20260901185603 83 298 4.0 9.0 0.00 0.00 0.00 70 1017.7
20260901185503 83 298 4.0 9.0 0.00 0.00 0.00 70 1017.7
20260901185403 83 298 4.0 9.0 0.00 0.00 0.00 70 1017.7
20260901185305 83 297 4.0 10.0 0.00 0.00 0.00 70 1017.7
20260901185203 83 298 4.0 10.0 0.00 0.00 0.00 70 1017.7
20260901185103 83 299 4.0 10.0 0.00 0.00 0.00 70 1017.7
20260901185003 83 300 4.0 10.0 0.00 0.00 0.00 70 1017.7
20260901184903 83 299 4.0 10.0 0.00 0.00 0.00 69 1017.7
20260901184803 83 300 4.0 10.0 0.00 0.00 0.00 70 1017.6
20260901184703 83 299 4.0 10.0 0.00 0.00 0.00 69 1017.6
20260901184604 83 299 4.0 10.0 0.00 0.00 0.00 69 1017.7
20260901184504 83 298 4.0 10.0 0.00 0.00 0.00 69 1017.6
20260901184404 83 300 4.0 10.0 0.00 0.00 0.00 69 1017.5
20260901184304 83 300 4.0 11.0 0.00 0.00 0.00 69 1017.6
20260901184204 83 299 4.0 11.0 0.00 0.00 0.00 69 1017.6
20260901184104 83 298 4.0 11.0 0.00 0.00 0.00 69 1017.6
20260901184004 83 297 4.0 11.0 0.00 0.00 0.00 69 1017.5
20260901183904 83 298 4.0 11.0 0.00 0.00 0.00 69 1017.5
20260901183804 83 298 5.0 11.0 0.00 0.00 0.00 69 1017.5
20260901183704 83 297 5.0 11.0 0.00 0.00 0.00 69 1017.4
20260901183604 83 299 5.0 11.0 0.00 0.00 0.00 69 1017.5
20260901183504 83 299 5.0 11.0 0.00 0.00 0.00 69 1017.5
20260901183404 83 297 5.0 11.0 0.00 0.00 0.00 69 1017.6
20260901183304 83 297 5.0 11.0 0.00 0.00 0.00 69 1017.5
20260901183204 83 299 5.0 11.0 0.00 0.00 0.00 69 1017.6
20260901183104 83 300 5.0 11.0 0.00 0.00 0.00 69 1017.6
20260901183004 83 300 5.0 11.0 0.00 0.00 0.00 69 1017.5
20260901182904 83 299 5.0 11.0 0.00 0.00 0.00 69 1017.5
20260901182804 83 299 5.0 11.0 0.00 0.00 0.00 69 1017.5
20260901182704 83 300 5.0 11.0 0.00 0.00 0.00 69 1017.5
20260901182604 83 299 5.0 11.0 0.00 0.00 0.00 69 1017.4
20260901182504 83 298 5.0 11.0 0.00 0.00 0.00 69 1017.5
20260901182404 83 297 5.0 11.0 0.00 0.00 0.00 69 1017.4
20260901182305 83 298 5.0 9.0 0.00 0.00 0.00 69 1017.4
20260901182204 83 297 5.0 9.0 0.00 0.00 0.00 69 1017.5
20260901182104 83 296 4.0 8.0 0.00 0.00 0.00 69 1017.3
20260901182004 83 295 4.0 8.0 0.00 0.00 0.00 69 1017.3
20260901181904 83 296 4.0 8.0 0.00 0.00 0.00 69 1017.3
20260901181804 83 296 5.0 9.0 0.00 0.00 0.00 69 1017.4
20260901181704 83 296 5.0 10.0 0.00 0.00 0.00 69 1017.4
20260901181604 83 297 5.0 10.0 0.00 0.00 0.00 68 1017.2
20260901181504 83 298 5.0 10.0 0.00 0.00 0.00 68 1017.2
20260901181404 83 299 5.0 10.0 0.00 0.00 0.00 68 1017.3
20260901181304 83 300 6.0 10.0 0.00 0.00 0.00 68 1017.3
20260901181204 83 300 5.0 10.0 0.00 0.00 0.00 68 1017.3
20260901181104 83 299 5.0 10.0 0.00 0.00 0.00 68 1017.3
20260901181004 83 300 5.0 10.0 0.00 0.00 0.00 68 1017.4
20260901180904 83 300 5.0 10.0 0.00 0.00 0.00 68 1017.4
20260901180804 83 300 5.0 10.0 0.00 0.00 0.00 68 1017.3
20260901180704 83 300 5.0 9.0 0.00 0.00 0.00 68 1017.3
20260901180604 83 300 5.0 9.0 0.00 0.00 0.00 68 1017.2
20260901180504 83 300 5.0 9.0 0.00 0.00 0.00 68 1017.2
20260901180404 83 299 5.0 9.0 0.00 0.00 0.00 68 1017.1
20260901180304 83 299 4.0 9.0 0.00 0.00 0.00 68 1017.2
20260901180204 83 300 5.0 9.0 0.00 0.00 0.00 68 1017.2
20260901180104 83 300 5.0 9.0 0.00 0.00 0.00 68 1017.3
20260901180004 83 299 5.0 11.0 0.00 0.00 0.00 68 1017.3
20260901175903 83 300 5.0 11.0 0.00 0.00 0.00 68 1017.2
20260901175803 83 299 4.0 11.0 0.00 0.00 0.00 67 1017.3
20260901175703 83 298 4.0 11.0 0.00 0.00 0.00 67 1017.3
20260901175603 83 299 4.0 11.0 0.00 0.00 0.00 67 1017.2
20260901175503 83 300 4.0 11.0 0.00 0.00 0.00 67 1017.2
20260901175403 83 299 4.0 11.0 0.00 0.00 0.00 67 1017.3
20260901175305 83 299 4.0 11.0 0.00 0.00 0.00 67 1017.2
20260901175203 83 299 5.0 11.0 0.00 0.00 0.00 67 1017.2
20260901175103 83 301 4.0 11.0 0.00 0.00 0.00 67 1017.2
20260901175003 83 301 4.0 9.0 0.00 0.00 0.00 67 1017.2
20260901174903 83 302 4.0 9.0 0.00 0.00 0.00 67 1017.2
20260901174803 83 302 4.0 9.0 0.00 0.00 0.00 67 1017.1
20260901174703 83 302 4.0 9.0 0.00 0.00 0.00 67 1017.1
20260901174603 84 303 3.0 9.0 0.00 0.00 0.00 67 1017.0
20260901174503 84 302 4.0 9.0 0.00 0.00 0.00 67 1017.1
20260901174403 84 303 4.0 9.0 0.00 0.00 0.00 67 1017.1
20260901174303 84 302 3.0 9.0 0.00 0.00 0.00 67 1017.1
20260901174203 84 302 3.0 8.0 0.00 0.00 0.00 67 1017.2
20260901174103 84 300 3.0 7.0 0.00 0.00 0.00 67 1017.2
20260901174003 84 300 2.0 7.0 0.00 0.00 0.00 66 1017.2
20260901173903 84 300 2.0 7.0 0.00 0.00 0.00 66 1017.1
20260901173803 84 300 2.0 7.0 0.00 0.00 0.00 66 1017.1
20260901173703 84 299 3.0 8.0 0.00 0.00 0.00 66 1017.0
20260901173603 84 299 3.0 8.0 0.00 0.00 0.00 66 1017.1
20260901173503 84 298 3.0 8.0 0.00 0.00 0.00 66 1017.1
20260901173403 84 298 3.0 8.0 0.00 0.00 0.00 66 1017.0
20260901173303 84 299 3.0 8.0 0.00 0.00 0.00 66 1017.0
20260901173203 84 299 3.0 8.0 0.00 0.00 0.00 66 1017.0
20260901173103 84 298 3.0 8.0 0.00 0.00 0.00 66 1017.0
20260901173003 84 297 4.0 8.0 0.00 0.00 0.00 66 1017.1
20260901172903 84 297 4.0 8.0 0.00 0.00 0.00 66 1017.0
20260901172803 84 296 4.0 8.0 0.00 0.00 0.00 66 1017.0
20260901172703 84 297 3.0 7.0 0.00 0.00 0.00 66 1017.0
20260901172604 84 296 3.0 7.0 0.00 0.00 0.00 66 1017.0
20260901172503 84 297 3.0 7.0 0.00 0.00 0.00 66 1016.9
20260901172403 84 297 3.0 7.0 0.00 0.00 0.00 65 1016.9
20260901172305 84 297 3.0 7.0 0.00 0.00 0.00 65 1016.9
20260901172203 84 297 4.0 7.0 0.00 0.00 0.00 65 1016.9
20260901172103 84 297 3.0 7.0 0.00 0.00 0.00 65 1016.9
20260901172003 84 296 3.0 7.0 0.00 0.00 0.00 65 1016.9
20260901171903 84 297 3.0 7.0 0.00 0.00 0.00 65 1016.9
20260901171803 84 297 3.0 7.0 0.00 0.00 0.00 65 1016.9
20260901171703 84 296 3.0 7.0 0.00 0.00 0.00 65 1016.9
20260901171603 84 297 3.0 7.0 0.00 0.00 0.00 65 1016.9
20260901171503 85 296 3.0 7.0 0.00 0.00 0.00 65 1017.0
20260901171403 85 297 3.0 7.0 0.00 0.00 0.00 65 1016.9
20260901171303 85 297 3.0 7.0 0.00 0.00 0.00 65 1017.0
20260901171203 85 296 3.0 7.0 0.00 0.00 0.00 65 1016.9
20260901171103 85 297 3.0 7.0 0.00 0.00 0.00 64 1016.8
20260901171003 85 298 3.0 7.0 0.00 0.00 0.00 64 1016.9
20260901170904 85 299 3.0 7.0 0.00 0.00 0.00 64 1016.9
20260901170803 85 299 3.0 7.0 0.00 0.00 0.00 64 1016.9
20260901170703 85 300 3.0 7.0 0.00 0.00 0.00 64 1016.9
20260901170603 85 300 3.0 7.0 0.00 0.00 0.00 63 1017.0
20260901170503 85 301 3.0 7.0 0.00 0.00 0.00 63 1017.0
20260901170403 85 299 3.0 7.0 0.00 0.00 0.00 63 1017.0
20260901170303 85 299 3.0 7.0 0.00 0.00 0.00 63 1017.0
20260901170203 85 298 3.0 7.0 0.00 0.00 0.00 63 1017.0
20260901170003 85 297 3.0 11.0 0.00 0.00 0.00 63 1016.9
20260901165903 85 295 3.0 11.0 0.00 0.00 0.00 63 1016.9
20260901165803 85 296 4.0 11.0 0.00 0.00 0.00 62 1016.8
20260901165703 85 295 4.0 11.0 0.00 0.00 0.00 62 1016.9
20260901165603 85 295 4.0 11.0 0.00 0.00 0.00 62 1016.9
20260901165503 85 295 4.0 11.0 0.00 0.00 0.00 62 1016.9
20260901165403 85 296 4.0 11.0 0.00 0.00 0.00 62 1016.9
20260901165306 85 296 4.0 11.0 0.00 0.00 0.00 62 1016.8
20260901165203 85 298 4.0 11.0 0.00 0.00 0.00 62 1016.9
20260901165103 85 297 3.0 11.0 0.00 0.00 0.00 62 1017.0
20260901165003 85 299 3.0 8.0 0.00 0.00 0.00 62 1017.0
20260901164903 85 299 3.0 8.0 0.00 0.00 0.00 62 1016.9
20260901164803 85 299 3.0 9.0 0.00 0.00 0.00 61 1016.9
20260901164703 85 299 4.0 10.0 0.00 0.00 0.00 61 1016.9
20260901164603 85 298 4.0 10.0 0.00 0.00 0.00 61 1017.0
20260901164503 85 298 4.0 10.0 0.00 0.00 0.00 61 1017.0
20260901164403 85 298 4.0 11.0 0.00 0.00 0.00 61 1017.0
20260901164303 85 300 4.0 11.0 0.00 0.00 0.00 61 1017.1
20260901164203 85 299 4.0 11.0 0.00 0.00 0.00 61 1016.9
20260901164103 85 300 4.0 11.0 0.00 0.00 0.00 61 1017.0
20260901164003 85 300 4.0 11.0 0.00 0.00 0.00 60 1017.0
20260901163903 85 300 5.0 11.0 0.00 0.00 0.00 60 1016.9
20260901163803 86 299 5.0 11.0 0.00 0.00 0.00 60 1017.0
20260901163703 86 300 4.0 11.0 0.00 0.00 0.00 60 1016.9
20260901163603 86 300 4.0 11.0 0.00 0.00 0.00 60 1017.0
20260901163503 86 301 4.0 11.0 0.00 0.00 0.00 60 1017.0
20260901163403 86 301 4.0 11.0 0.00 0.00 0.00 60 1016.9
20260901163303 86 299 3.0 11.0 0.00 0.00 0.00 60 1016.9
20260901163203 86 299 3.0 11.0 0.00 0.00 0.00 60 1016.9
20260901163103 86 297 3.0 11.0 0.00 0.00 0.00 60 1016.9
20260901163003 86 297 4.0 11.0 0.00 0.00 0.00 60 1016.9
20260901162903 86 298 3.0 11.0 0.00 0.00 0.00 60 1017.0
20260901162803 86 297 3.0 9.0 0.00 0.00 0.00 60 1016.9
20260901162703 86 298 3.0 11.0 0.00 0.00 0.00 59 1016.9
20260901162603 86 298 4.0 11.0 0.00 0.00 0.00 59 1016.9
20260901162503 86 298 4.0 11.0 0.00 0.00 0.00 59 1017.0
20260901162403 86 297 4.0 11.0 0.00 0.00 0.00 59 1016.9
20260901162306 86 297 4.0 11.0 0.00 0.00 0.00 59 1016.9
20260901162203 86 298 4.0 11.0 0.00 0.00 0.00 59 1016.9
20260901162103 86 298 4.0 11.0 0.00 0.00 0.00 59 1016.9
20260901162003 86 298 4.0 11.0 0.00 0.00 0.00 59 1016.9
20260901161903 86 297 4.0 11.0 0.00 0.00 0.00 59 1016.9
20260901161803 86 298 4.0 11.0 0.00 0.00 0.00 59 1017.0
20260901161703 86 296 4.0 9.0 0.00 0.00 0.00 59 1017.0
20260901161603 86 296 4.0 9.0 0.00 0.00 0.00 59 1016.9
20260901161503 86 298 4.0 12.0 0.00 0.00 0.00 59 1016.9
20260901161403 86 297 4.0 12.0 0.00 0.00 0.00 59 1016.9
20260901161303 86 297 4.0 12.0 0.00 0.00 0.00 58 1016.9
20260901161203 86 296 4.0 12.0 0.00 0.00 0.00 58 1016.9
20260901161103 86 297 4.0 12.0 0.00 0.00 0.00 58 1016.9
20260901161003 86 297 4.0 12.0 0.00 0.00 0.00 58 1017.0
20260901160903 86 297 4.0 12.0 0.00 0.00 0.00 58 1016.9
20260901160804 86 298 4.0 12.0 0.00 0.00 0.00 58 1016.9
20260901160704 86 299 4.0 12.0 0.00 0.00 0.00 58 1016.9
20260901160604 86 301 4.0 12.0 0.00 0.00 0.00 58 1017.0
20260901160504 86 301 4.0 14.0 0.00 0.00 0.00 58 1016.9
20260901160404 86 300 4.0 14.0 0.00 0.00 0.00 58 1016.9
20260901160304 86 301 4.0 14.0 0.00 0.00 0.00 58 1016.9
20260901160204 86 301 4.0 14.0 0.00 0.00 0.00 57 1016.9
20260901160104 86 301 4.0 14.0 0.00 0.00 0.00 58 1016.9
20260901160004 86 300 5.0 14.0 0.00 0.00 0.00 57 1016.9
20260901155904 86 300 5.0 14.0 0.00 0.00 0.00 57 1016.9
20260901155804 86 301 5.0 14.0 0.00 0.00 0.00 57 1016.9
20260901155704 86 300 5.0 14.0 0.00 0.00 0.00 57 1016.9
20260901155604 86 300 5.0 14.0 0.00 0.00 0.00 57 1016.9
20260901155504 87 299 5.0 13.0 0.00 0.00 0.00 56 1016.8
20260901155404 87 300 4.0 13.0 0.00 0.00 0.00 56 1016.8
20260901155306 87 301 4.0 13.0 0.00 0.00 0.00 56 1016.8
20260901155204 87 300 4.0 13.0 0.00 0.00 0.00 56 1016.8
20260901155104 87 300 4.0 13.0 0.00 0.00 0.00 56 1016.8
20260901155004 87 301 4.0 13.0 0.00 0.00 0.00 56 1016.8
20260901154904 87 302 4.0 13.0 0.00 0.00 0.00 56 1016.9
20260901154804 87 300 3.0 13.0 0.00 0.00 0.00 56 1016.9
20260901154704 87 299 3.0 13.0 0.00 0.00 0.00 56 1016.8
20260901154604 87 296 3.0 9.0 0.00 0.00 0.00 56 1016.8
20260901154504 87 296 3.0 8.0 0.00 0.00 0.00 56 1016.8
20260901154404 87 296 4.0 9.0 0.00 0.00 0.00 56 1016.8
20260901154304 87 297 4.0 9.0 0.00 0.00 0.00 56 1016.8
20260901154204 87 298 4.0 9.0 0.00 0.00 0.00 56 1016.8
20260901154104 87 298 4.0 9.0 0.00 0.00 0.00 56 1016.8
20260901154004 87 299 4.0 9.0 0.00 0.00 0.00 56 1016.8
20260901153904 87 300 4.0 9.0 0.00 0.00 0.00 56 1016.8
20260901153804 87 301 5.0 9.0 0.00 0.00 0.00 56 1016.8
20260901153704 87 303 5.0 9.0 0.00 0.00 0.00 56 1016.8
20260901153604 87 303 4.0 10.0 0.00 0.00 0.00 56 1016.7
20260901153504 87 303 4.0 10.0 0.00 0.00 0.00 56 1016.8
20260901153404 87 304 4.0 10.0 0.00 0.00 0.00 56 1016.8
20260901153304 87 303 5.0 13.0 0.00 0.00 0.00 56 1016.8
20260901153204 87 302 5.0 13.0 0.00 0.00 0.00 56 1016.8
20260901153104 87 299 5.0 13.0 0.00 0.00 0.00 56 1016.8
20260901153004 87 299 6.0 13.0 0.00 0.00 0.00 55 1016.7
20260901152904 87 299 6.0 13.0 0.00 0.00 0.00 55 1016.8
20260901152804 87 297 6.0 13.0 0.00 0.00 0.00 55 1016.8
20260901152704 87 297 7.0 13.0 0.00 0.00 0.00 55 1016.7
20260901152604 87 298 7.0 13.0 0.00 0.00 0.00 55 1016.8
20260901152504 87 298 7.0 13.0 0.00 0.00 0.00 55 1016.8
20260901152404 87 298 7.0 13.0 0.00 0.00 0.00 55 1016.8
20260901152306 87 298 6.0 13.0 0.00 0.00 0.00 55 1016.8
20260901152204 87 299 6.0 13.0 0.00 0.00 0.00 55 1016.8
20260901152104 87 301 6.0 12.0 0.00 0.00 0.00 55 1016.7
20260901152004 87 300 5.0 12.0 0.00 0.00 0.00 55 1016.8
20260901151904 87 300 5.0 12.0 0.00 0.00 0.00 55 1016.8
20260901151804 87 301 5.0 12.0 0.00 0.00 0.00 55 1016.9
20260901151704 88 300 4.0 12.0 0.00 0.00 0.00 55 1016.9
20260901151604 88 298 4.0 12.0 0.00 0.00 0.00 55 1017.0
20260901151504 88 298 4.0 12.0 0.00 0.00 0.00 55 1017.0
20260901151404 88 298 4.0 12.0 0.00 0.00 0.00 54 1016.9
20260901151304 88 297 4.0 12.0 0.00 0.00 0.00 54 1016.9
20260901151204 88 297 3.0 10.0 0.00 0.00 0.00 54 1016.9
20260901151104 88 296 4.0 10.0 0.00 0.00 0.00 54 1016.9
20260901151004 88 298 3.0 10.0 0.00 0.00 0.00 54 1016.9
20260901150904 88 298 3.0 10.0 0.00 0.00 0.00 54 1016.9
20260901150804 88 298 4.0 10.0 0.00 0.00 0.00 54 1016.9
20260901150704 88 299 4.0 10.0 0.00 0.00 0.00 54 1016.9
20260901150604 88 299 4.0 10.0 0.00 0.00 0.00 54 1016.9
20260901150504 88 299 4.0 8.0 0.00 0.00 0.00 54 1016.8
20260901150403 88 297 4.0 10.0 0.00 0.00 0.00 54 1016.9
20260901150304 88 298 4.0 10.0 0.00 0.00 0.00 54 1016.9
20260901150204 88 297 4.0 10.0 0.00 0.00 0.00 54 1016.9
20260901150103 88 297 4.0 10.0 0.00 0.00 0.00 54 1016.9
20260901150004 88 297 4.0 10.0 0.00 0.00 0.00 53 1016.9
20260901145903 88 297 4.0 10.0 0.00 0.00 0.00 53 1016.8
20260901145803 88 296 4.0 10.0 0.00 0.00 0.00 53 1016.8
20260901145703 88 296 4.0 10.0 0.00 0.00 0.00 53 1016.9
20260901145604 88 294 3.0 10.0 0.00 0.00 0.00 53 1016.9
20260901145504 88 292 4.0 10.0 0.00 0.00 0.00 53 1016.9
20260901145403 88 294 4.0 11.0 0.00 0.00 0.00 53 1016.9
20260901145306 88 294 4.0 11.0 0.00 0.00 0.00 53 1016.8
20260901145203 88 294 3.0 11.0 0.00 0.00 0.00 53 1016.8
20260901145103 88 294 3.0 11.0 0.00 0.00 0.00 53 1016.9
20260901145003 88 293 3.0 11.0 0.00 0.00 0.00 53 1016.9
20260901144903 88 294 3.0 11.0 0.00 0.00 0.00 53 1016.8
20260901144803 88 297 3.0 11.0 0.00 0.00 0.00 53 1016.8
20260901144703 88 297 3.0 11.0 0.00 0.00 0.00 53 1016.8
20260901144603 88 299 4.0 11.0 0.00 0.00 0.00 53 1016.8
20260901144503 88 299 4.0 11.0 0.00 0.00 0.00 53 1016.8
20260901144403 88 299 4.0 11.0 0.00 0.00 0.00 52 1016.8
20260901144303 88 298 3.0 11.0 0.00 0.00 0.00 52 1016.8
20260901144203 88 299 4.0 11.0 0.00 0.00 0.00 52 1016.8
20260901144103 88 299 4.0 11.0 0.00 0.00 0.00 52 1016.8
20260901144003 88 298 5.0 11.0 0.00 0.00 0.00 52 1016.8
20260901143903 88 297 5.0 11.0 0.00 0.00 0.00 52 1016.8
20260901143803 88 295 5.0 11.0 0.00 0.00 0.00 52 1016.8
20260901143703 88 295 4.0 11.0 0.00 0.00 0.00 52 1016.8
20260901143603 88 295 4.0 16.0 0.00 0.00 0.00 52 1016.8
20260901143503 88 297 4.0 16.0 0.00 0.00 0.00 51 1016.7
20260901143403 88 297 4.0 16.0 0.00 0.00 0.00 51 1016.7
20260901143303 88 297 4.0 16.0 0.00 0.00 0.00 51 1016.8
20260901143203 88 296 4.0 16.0 0.00 0.00 0.00 51 1016.8
20260901143103 88 295 4.0 16.0 0.00 0.00 0.00 51 1016.8
20260901143003 88 299 4.0 16.0 0.00 0.00 0.00 51 1016.8
20260901142903 88 298 4.0 16.0 0.00 0.00 0.00 51 1016.6
20260901142803 88 299 4.0 16.0 0.00 0.00 0.00 51 1016.7
20260901142703 88 299 4.0 16.0 0.00 0.00 0.00 51 1016.8
20260901142603 88 300 4.0 13.0 0.00 0.00 0.00 51 1016.8
20260901142503 88 299 4.0 13.0 0.00 0.00 0.00 51 1016.7
20260901142403 88 301 4.0 13.0 0.00 0.00 0.00 51 1016.8
20260901142305 88 301 4.0 13.0 0.00 0.00 0.00 51 1016.7
20260901142203 88 302 4.0 13.0 0.00 0.00 0.00 51 1016.7
20260901142103 89 303 4.0 13.0 0.00 0.00 0.00 51 1016.8
20260901142003 89 299 3.0 13.0 0.00 0.00 0.00 51 1016.6
20260901141903 89 302 3.0 13.0 0.00 0.00 0.00 50 1016.6
20260901141803 89 302 3.0 13.0 0.00 0.00 0.00 50 1016.6
20260901141703 89 306 3.0 13.0 0.00 0.00 0.00 50 1016.6
20260901141603 89 301 3.0 16.0 0.00 0.00 0.00 50 1016.6
20260901141503 89 299 4.0 16.0 0.00 0.00 0.00 50 1016.5
20260901141403 89 298 5.0 16.0 0.00 0.00 0.00 50 1016.6
20260901141303 88 297 5.0 16.0 0.00 0.00 0.00 50 1016.6
20260901141203 89 296 5.0 16.0 0.00 0.00 0.00 50 1016.6
20260901141103 88 296 5.0 16.0 0.00 0.00 0.00 50 1016.6
20260901141003 88 298 5.0 16.0 0.00 0.00 0.00 50 1016.6
20260901140903 88 295 5.0 16.0 0.00 0.00 0.00 50 1016.6
20260901140803 88 295 5.0 16.0 0.00 0.00 0.00 50 1016.8
20260901140703 89 294 6.0 16.0 0.00 0.00 0.00 49 1016.8
20260901140603 89 295 5.0 13.0 0.00 0.00 0.00 50 1016.8
20260901140503 89 294 5.0 11.0 0.00 0.00 0.00 50 1016.7
20260901140403 89 294 5.0 13.0 0.00 0.00 0.00 50 1016.6
20260901140303 89 295 5.0 13.0 0.00 0.00 0.00 50 1016.5
20260901140203 89 296 5.0 13.0 0.00 0.00 0.00 50 1016.6
20260901140103 89 298 5.0 13.0 0.00 0.00 0.00 50 1016.6
20260901140003 89 297 6.0 13.0 0.00 0.00 0.00 50 1016.6
20260901135903 89 298 6.0 13.0 0.00 0.00 0.00 50 1016.7
20260901135803 89 298 6.0 13.0 0.00 0.00 0.00 49 1016.7
20260901135703 89 298 6.0 13.0 0.00 0.00 0.00 49 1016.7
20260901135603 89 297 5.0 13.0 0.00 0.00 0.00 49 1016.7
20260901135503 89 298 5.0 13.0 0.00 0.00 0.00 49 1016.8
20260901135403 89 298 4.0 12.0 0.00 0.00 0.00 49 1016.7
20260901135305 89 300 4.0 12.0 0.00 0.00 0.00 49 1016.7
20260901135203 89 300 4.0 13.0 0.00 0.00 0.00 49 1016.6
20260901135103 89 299 5.0 15.0 0.00 0.00 0.00 49 1016.7
20260901135003 89 300 5.0 15.0 0.00 0.00 0.00 49 1016.6
20260901134903 89 301 4.0 15.0 0.00 0.00 0.00 49 1016.6
20260901134803 89 302 4.0 15.0 0.00 0.00 0.00 49 1016.6
20260901134703 89 303 4.0 15.0 0.00 0.00 0.00 49 1016.7
20260901134603 89 303 4.0 15.0 0.00 0.00 0.00 48 1016.6
20260901134503 89 302 4.0 15.0 0.00 0.00 0.00 48 1016.7
20260901134403 89 302 4.0 15.0 0.00 0.00 0.00 48 1016.8
20260901134303 89 301 4.0 15.0 0.00 0.00 0.00 48 1016.7
20260901134203 89 301 4.0 15.0 0.00 0.00 0.00 48 1016.8
20260901134103 89 301 3.0 11.0 0.00 0.00 0.00 48 1016.8
20260901134004 89 302 3.0 11.0 0.00 0.00 0.00 48 1016.8
20260901133903 89 301 3.0 10.0 0.00 0.00 0.00 48 1016.7
20260901133803 89 296 4.0 16.0 0.00 0.00 0.00 48 1016.7
20260901133704 89 294 4.0 16.0 0.00 0.00 0.00 48 1016.6
20260901133603 89 295 4.0 16.0 0.00 0.00 0.00 48 1016.5
20260901133503 89 295 4.0 16.0 0.00 0.00 0.00 48 1016.6
20260901133403 89 294 4.0 16.0 0.00 0.00 0.00 47 1016.7
20260901133303 89 294 4.0 16.0 0.00 0.00 0.00 47 1016.6
20260901133203 89 293 4.0 16.0 0.00 0.00 0.00 47 1016.6
20260901133103 89 292 4.0 16.0 0.00 0.00 0.00 47 1016.7
20260901133003 89 291 5.0 16.0 0.00 0.00 0.00 47 1016.7
20260901132903 89 291 4.0 16.0 0.00 0.00 0.00 47 1016.7
20260901132804 89 297 4.0 12.0 0.00 0.00 0.00 47 1016.7
20260901132704 89 298 4.0 12.0 0.00 0.00 0.00 47 1016.5
20260901132604 89 298 4.0 12.0 0.00 0.00 0.00 47 1016.6
20260901132504 89 298 4.0 12.0 0.00 0.00 0.00 47 1016.7
20260901132404 89 299 4.0 12.0 0.00 0.00 0.00 47 1016.7
20260901132307 89 298 4.0 12.0 0.00 0.00 0.00 47 1016.6
20260901132204 89 300 4.0 14.0 0.00 0.00 0.00 47 1016.6
20260901132104 89 301 4.0 14.0 0.00 0.00 0.00 47 1016.6
20260901132004 89 303 3.0 14.0 0.00 0.00 0.00 47 1016.6
20260901131904 89 303 3.0 14.0 0.00 0.00 0.00 47 1016.7
20260901131804 89 299 3.0 14.0 0.00 0.00 0.00 47 1016.6
20260901131704 89 298 3.0 14.0 0.00 0.00 0.00 47 1016.7
20260901131604 89 298 3.0 14.0 0.00 0.00 0.00 47 1016.6
20260901131504 89 297 3.0 14.0 0.00 0.00 0.00 47 1016.7
20260901131404 89 296 3.0 14.0 0.00 0.00 0.00 47 1016.8
20260901131304 89 296 4.0 14.0 0.00 0.00 0.00 46 1016.8
20260901131204 89 295 3.0 10.0 0.00 0.00 0.00 46 1016.7
20260901131104 89 294 3.0 10.0 0.00 0.00 0.00 46 1016.8
20260901131004 89 295 4.0 10.0 0.00 0.00 0.00 46 1016.8
20260901130904 89 296 4.0 10.0 0.00 0.00 0.00 45 1016.9
20260901130804 89 295 4.0 10.0 0.00 0.00 0.00 46 1016.8
20260901130704 89 294 4.0 10.0 0.00 0.00 0.00 46 1016.9
20260901130604 89 294 4.0 10.0 0.00 0.00 0.00 47 1016.8
20260901130504 89 295 4.0 10.0 0.00 0.00 0.00 47 1016.8
20260901130404 89 297 4.0 10.0 0.00 0.00 0.00 47 1016.8
20260901130304 89 300 4.0 9.0 0.00 0.00 0.00 47 1016.8
20260901130204 89 299 4.0 9.0 0.00 0.00 0.00 47 1016.9
20260901130104 89 299 4.0 9.0 0.00 0.00 0.00 48 1016.9
20260901130004 89 298 4.0 9.0 0.00 0.00 0.00 48 1016.9
20260901125904 89 298 4.0 9.0 0.00 0.00 0.00 48 1016.9
20260901125804 89 301 4.0 11.0 0.00 0.00 0.00 48 1016.8
20260901125704 89 300 4.0 11.0 0.00 0.00 0.00 48 1016.9
20260901125604 89 300 4.0 11.0 0.00 0.00 0.00 48 1016.9
20260901125504 89 300 4.0 11.0 0.00 0.00 0.00 48 1016.9
20260901125404 89 300 5.0 11.0 0.00 0.00 0.00 48 1016.9
20260901125308 89 300 5.0 11.0 0.00 0.00 0.00 48 1016.8
20260901125204 89 301 5.0 11.0 0.00 0.00 0.00 48 1016.9
20260901125104 89 302 5.0 11.0 0.00 0.00 0.00 48 1016.8
20260901125004 89 302 5.0 13.0 0.00 0.00 0.00 48 1016.9
20260901124904 89 300 5.0 13.0 0.00 0.00 0.00 49 1016.8
20260901124804 89 299 6.0 13.0 0.00 0.00 0.00 49 1016.7
20260901124704 89 299 6.0 13.0 0.00 0.00 0.00 49 1016.8
20260901124604 89 299 6.0 14.0 0.00 0.00 0.00 49 1016.7
20260901124504 89 298 6.0 14.0 0.00 0.00 0.00 49 1016.7
20260901124404 89 297 6.0 14.0 0.00 0.00 0.00 49 1016.7
20260901124304 89 298 6.0 14.0 0.00 0.00 0.00 49 1016.8
20260901124204 89 298 6.0 14.0 0.00 0.00 0.00 49 1016.8
20260901124103 89 298 6.0 14.0 0.00 0.00 0.00 49 1016.9
20260901124004 89 299 6.0 14.0 0.00 0.00 0.00 49 1016.8
20260901123904 89 299 6.0 14.0 0.00 0.00 0.00 49 1016.8
20260901123804 89 299 6.0 14.0 0.00 0.00 0.00 49 1016.8
20260901123703 89 299 6.0 14.0 0.00 0.00 0.00 49 1016.9
20260901123604 89 298 5.0 12.0 0.00 0.00 0.00 49 1016.9
20260901123503 89 299 5.0 12.0 0.00 0.00 0.00 49 1016.8
20260901123403 89 300 5.0 12.0 0.00 0.00 0.00 49 1016.9
20260901123303 89 300 4.0 12.0 0.00 0.00 0.00 49 1016.8
20260901123204 89 298 5.0 12.0 0.00 0.00 0.00 49 1016.8
20260901123103 89 299 5.0 12.0 0.00 0.00 0.00 49 1016.8
20260901123003 89 296 5.0 12.0 0.00 0.00 0.00 49 1016.8
20260901122903 89 297 5.0 12.0 0.00 0.00 0.00 49 1016.9
20260901122804 89 298 5.0 12.0 0.00 0.00 0.00 49 1016.9
20260901122703 89 298 5.0 12.0 0.00 0.00 0.00 49 1016.8
20260901122603 89 298 5.0 12.0 0.00 0.00 0.00 49 1016.8
20260901122503 89 298 5.0 12.0 0.00 0.00 0.00 49 1016.9
20260901122403 89 299 5.0 12.0 0.00 0.00 0.00 49 1016.9
20260901122306 89 299 5.0 12.0 0.00 0.00 0.00 49 1016.8
20260901122203 89 301 4.0 12.0 0.00 0.00 0.00 49 1016.8
20260901122103 89 300 4.0 12.0 0.00 0.00 0.00 49 1016.9
20260901122003 89 304 4.0 12.0 0.00 0.00 0.00 48 1016.8
20260901121903 89 303 4.0 12.0 0.00 0.00 0.00 48 1016.9
20260901121803 89 303 3.0 12.0 0.00 0.00 0.00 49 1016.8
20260901121703 89 305 3.0 11.0 0.00 0.00 0.00 49 1016.8
20260901121603 89 305 3.0 11.0 0.00 0.00 0.00 49 1016.8
20260901121503 89 305 3.0 12.0 0.00 0.00 0.00 49 1016.9
20260901121403 89 303 3.0 12.0 0.00 0.00 0.00 49 1016.9
20260901121303 89 301 3.0 12.0 0.00 0.00 0.00 49 1016.8
20260901121203 89 299 4.0 12.0 0.00 0.00 0.00 49 1016.8
20260901121103 89 298 4.0 12.0 0.00 0.00 0.00 49 1016.9
20260901121003 89 297 4.0 12.0 0.00 0.00 0.00 49 1016.9
20260901120903 89 298 4.0 12.0 0.00 0.00 0.00 49 1016.9
20260901120803 89 299 5.0 12.0 0.00 0.00 0.00 49 1016.9
20260901120703 89 299 5.0 12.0 0.00 0.00 0.00 49 1016.9
20260901120603 89 299 5.0 12.0 0.00 0.00 0.00 49 1016.9
20260901120503 89 299 5.0 12.0 0.00 0.00 0.00 49 1016.9
20260901120403 89 298 4.0 11.0 0.00 0.00 0.00 49 1017.0
20260901120303 89 298 4.0 11.0 0.00 0.00 0.00 49 1016.9
20260901120203 89 300 4.0 15.0 0.00 0.00 0.00 49 1016.9
20260901120103 89 301 4.0 15.0 0.00 0.00 0.00 49 1016.9
20260901120003 89 299 4.0 15.0 0.00 0.00 0.00 49 1016.9
20260901115903 89 300 3.0 15.0 0.00 0.00 0.00 49 1016.9
20260901115803 89 298 4.0 15.0 0.00 0.00 0.00 49 1016.9
20260901115703 89 298 4.0 15.0 0.00 0.00 0.00 49 1017.0
20260901115603 89 299 4.0 15.0 0.00 0.00 0.00 49 1016.9
20260901115503 89 300 5.0 15.0 0.00 0.00 0.00 49 1016.9
20260901115403 89 299 5.0 15.0 0.00 0.00 0.00 49 1016.9
20260901115306 89 299 5.0 15.0 0.00 0.00 0.00 49 1017.0
20260901115203 89 297 5.0 15.0 0.00 0.00 0.00 49 1016.8
20260901115103 89 298 5.0 15.0 0.00 0.00 0.00 49 1016.8
20260901115003 89 297 5.0 15.0 0.00 0.00 0.00 49 1016.8
20260901114903 89 297 6.0 15.0 0.00 0.00 0.00 49 1016.9
20260901114803 89 297 6.0 15.0 0.00 0.00 0.00 49 1017.0
20260901114703 89 297 6.0 15.0 0.00 0.00 0.00 49 1016.9
20260901114603 89 296 5.0 15.0 0.00 0.00 0.00 49 1016.9
20260901114503 89 295 5.0 12.0 0.00 0.00 0.00 49 1017.0
20260901114403 89 295 4.0 12.0 0.00 0.00 0.00 50 1016.9
20260901114303 89 296 4.0 12.0 0.00 0.00 0.00 50 1016.9
20260901114203 89 296 4.0 12.0 0.00 0.00 0.00 49 1016.8
20260901114103 89 297 4.0 12.0 0.00 0.00 0.00 49 1016.9
20260901114003 89 301 4.0 12.0 0.00 0.00 0.00 50 1016.9
20260901113903 89 303 4.0 12.0 0.00 0.00 0.00 50 1016.8
20260901113803 89 303 4.0 12.0 0.00 0.00 0.00 50 1016.8
20260901113703 89 304 5.0 12.0 0.00 0.00 0.00 50 1016.8
20260901113603 89 304 5.0 12.0 0.00 0.00 0.00 50 1016.8
20260901113503 89 303 5.0 12.0 0.00 0.00 0.00 49 1016.8
20260901113403 89 304 5.0 12.0 0.00 0.00 0.00 49 1016.8
20260901113303 89 304 5.0 12.0 0.00 0.00 0.00 49 1016.9
20260901113203 89 304 5.0 12.0 0.00 0.00 0.00 49 1016.9
20260901113103 89 304 4.0 12.0 0.00 0.00 0.00 49 1016.9
20260901113003 89 301 4.0 11.0 0.00 0.00 0.00 50 1016.8
20260901112903 89 300 3.0 11.0 0.00 0.00 0.00 49 1016.9
20260901112803 89 299 3.0 11.0 0.00 0.00 0.00 50 1016.9
20260901112703 89 297 3.0 7.0 0.00 0.00 0.00 50 1016.9
20260901112603 89 297 3.0 7.0 0.00 0.00 0.00 50 1016.8
20260901112503 89 298 2.0 7.0 0.00 0.00 0.00 50 1016.8
20260901112403 89 296 2.0 7.0 0.00 0.00 0.00 50 1016.9
20260901112306 89 297 3.0 8.0 0.00 0.00 0.00 50 1016.8
20260901112203 89 297 3.0 8.0 0.00 0.00 0.00 50 1016.8
20260901112103 89 298 3.0 8.0 0.00 0.00 0.00 50 1016.9
20260901112003 89 299 3.0 8.0 0.00 0.00 0.00 50 1016.8
20260901111903 89 298 3.0 8.0 0.00 0.00 0.00 50 1016.8
20260901111803 89 298 3.0 9.0 0.00 0.00 0.00 50 1016.8
20260901111703 89 298 3.0 9.0 0.00 0.00 0.00 50 1016.8
20260901111603 89 301 3.0 11.0 0.00 0.00 0.00 50 1016.9
20260901111503 89 299 4.0 13.0 0.00 0.00 0.00 50 1016.9
20260901111403 89 300 4.0 13.0 0.00 0.00 0.00 50 1016.9
20260901111303 89 301 4.0 13.0 0.00 0.00 0.00 50 1016.9
20260901111203 89 300 4.0 13.0 0.00 0.00 0.00 50 1016.8
20260901111103 89 300 4.0 13.0 0.00 0.00 0.00 50 1016.8
20260901111004 89 300 4.0 13.0 0.00 0.00 0.00 50 1016.9
20260901110904 89 302 4.0 13.0 0.00 0.00 0.00 50 1016.9
20260901110804 89 300 4.0 13.0 0.00 0.00 0.00 50 1016.8
20260901110704 89 299 4.0 13.0 0.00 0.00 0.00 50 1016.9
20260901110604 89 299 5.0 13.0 0.00 0.00 0.00 50 1016.9
20260901110504 89 300 5.0 12.0 0.00 0.00 0.00 50 1016.8
20260901110404 89 299 5.0 12.0 0.00 0.00 0.00 50 1016.9
20260901110304 89 299 4.0 12.0 0.00 0.00 0.00 51 1016.9
20260901110204 89 301 4.0 12.0 0.00 0.00 0.00 51 1016.9
20260901110104 89 302 4.0 12.0 0.00 0.00 0.00 51 1017.0
20260901110004 89 300 4.0 11.0 0.00 0.00 0.00 51 1017.0
20260901105904 89 300 4.0 11.0 0.00 0.00 0.00 50 1016.9
20260901105804 89 301 4.0 11.0 0.00 0.00 0.00 50 1017.1
20260901105704 89 304 4.0 11.0 0.00 0.00 0.00 50 1016.9
20260901105604 89 303 3.0 9.0 0.00 0.00 0.00 51 1017.0
20260901105504 89 304 3.0 8.0 0.00 0.00 0.00 51 1017.0
20260901105404 89 304 4.0 8.0 0.00 0.00 0.00 51 1017.0
20260901105305 89 304 4.0 8.0 0.00 0.00 0.00 51 1017.1
20260901105204 89 303 4.0 9.0 0.00 0.00 0.00 51 1017.1
20260901105104 89 301 4.0 9.0 0.00 0.00 0.00 51 1017.1
20260901105004 89 302 5.0 9.0 0.00 0.00 0.00 51 1017.1
20260901104904 89 301 5.0 10.0 0.00 0.00 0.00 51 1017.0
20260901104804 89 301 5.0 10.0 0.00 0.00 0.00 51 1017.0
20260901104704 89 300 5.0 10.0 0.00 0.00 0.00 51 1017.0
20260901104604 89 301 5.0 10.0 0.00 0.00 0.00 51 1017.0
20260901104504 89 300 5.0 10.0 0.00 0.00 0.00 51 1016.9
20260901104404 89 299 5.0 10.0 0.00 0.00 0.00 51 1017.0
20260901104304 89 299 5.0 10.0 0.00 0.00 0.00 51 1017.0
20260901104204 89 298 5.0 10.0 0.00 0.00 0.00 51 1017.0
20260901104104 89 299 5.0 10.0 0.00 0.00 0.00 50 1017.0
20260901104004 89 297 4.0 10.0 0.00 0.00 0.00 50 1017.0
20260901103904 89 296 4.0 10.0 0.00 0.00 0.00 50 1017.0
20260901103804 89 296 4.0 12.0 0.00 0.00 0.00 51 1017.0
20260901103704 89 298 4.0 12.0 0.00 0.00 0.00 51 1017.0
20260901103604 89 297 4.0 12.0 0.00 0.00 0.00 51 1017.0
20260901103504 89 296 4.0 14.0 0.00 0.00 0.00 51 1017.1
20260901103404 89 296 4.0 14.0 0.00 0.00 0.00 51 1017.0
20260901103304 89 295 4.0 14.0 0.00 0.00 0.00 51 1017.1
20260901103204 89 297 5.0 17.0 0.00 0.00 0.00 51 1017.1
20260901103104 89 298 5.0 17.0 0.00 0.00 0.00 51 1017.0
20260901103004 89 297 5.0 17.0 0.00 0.00 0.00 51 1017.1
20260901102904 89 300 5.0 17.0 0.00 0.00 0.00 51 1017.0
20260901102804 89 300 5.0 17.0 0.00 0.00 0.00 51 1017.1
20260901102704 89 299 5.0 17.0 0.00 0.00 0.00 51 1017.1
20260901102604 88 299 5.0 17.0 0.00 0.00 0.00 51 1017.0
20260901102503 88 299 5.0 17.0 0.00 0.00 0.00 51 1016.9
20260901102404 89 299 4.0 17.0 0.00 0.00 0.00 52 1016.9
20260901102306 88 300 4.0 17.0 0.00 0.00 0.00 52 1016.8
20260901102203 88 299 3.0 13.0 0.00 0.00 0.00 52 1016.8
20260901102103 88 298 3.0 13.0 0.00 0.00 0.00 52 1016.9
20260901102004 88 299 3.0 13.0 0.00 0.00 0.00 52 1016.9
20260901101903 88 298 2.0 10.0 0.00 0.00 0.00 53 1016.9
20260901101804 88 299 3.0 10.0 0.00 0.00 0.00 53 1016.9
20260901101703 88 298 3.0 10.0 0.00 0.00 0.00 53 1016.8
20260901101604 88 298 3.0 10.0 0.00 0.00 0.00 53 1016.9
20260901101503 88 299 3.0 10.0 0.00 0.00 0.00 53 1016.9